GFSSE_sfc_thetae_000.txt.gz
Theta_e
351 356 365 365 363 365 364 363 362 362 361 361 359 359 362 361 360 360 359 360 358 359 359 359 358 358 357 357 357 358 359 358 359 358 360 359 360 360 359 358 358 356 358
354 356 366 365 362 361 361 360 361 361 361 360 361 359 359 361 361 359 359 359 360 359 358 359 358 358 357 357 358 358 358 357 358 357 358 360 358 359 357 358 357 355 356
352 357 358 365 364 361 360 360 360 360 360 359 361 360 360 360 360 361 360 360 358 357 358 358 358 357 356 357 357 359 359 356 354 354 357 352 354 357 356 356 356 355 354
343 356 360 364 365 364 362 362 361 362 361 361 361 360 360 360 360 359 358 358 357 357 357 356 357 357 356 356 356 359 358 357 355 355 352 352 350 356 356 357 355 355 354
341 353 361 365 365 364 362 363 363 362 361 362 361 359 359 358 358 358 358 358 358 357 356 359 359 358 357 356 353 355 357 356 355 353 351 349 349 353 356 356 354 353 351
339 351 361 365 364 364 362 360 361 361 359 358 358 358 358 358 358 356 356 358 357 358 357 359 359 357 358 356 354 353 355 354 353 351 351 351 351 354 355 352 349 349 347
333 350 358 362 361 361 360 359 357 356 354 355 355 357 359 355 355 354 356 353 355 356 356 356 355 356 355 358 354 353 355 353 348 345 345 346 352 355 352 349 346 344 343
332 348 354 360 359 357 355 353 353 352 353 352 352 353 355 355 356 356 352 350 351 352 353 354 355 353 354 355 355 352 351 350 347 342 346 347 352 353 350 347 343 342 340
327 330 348 348 353 355 353 353 352 349 349 351 347 347 350 356 352 349 354 349 349 350 350 352 352 352 353 351 354 352 349 347 344 344 343 346 352 353 349 345 343 340 339
321 323 325 329 330 334 336 347 345 350 346 343 344 341 344 341 344 341 348 347 350 350 349 352 350 349 352 352 354 352 349 344 342 339 338 344 348 349 349 344 340 339 338
318 318 319 320 320 319 318 327 332 336 338 335 331 335 326 320 323 325 337 345 346 350 347 351 350 349 350 351 352 351 349 338 340 340 345 346 349 349 348 345 341 338 336
310 312 313 313 314 314 316 312 312 314 313 314 314 313 315 316 321 326 329 338 340 342 342 342 348 349 347 345 345 350 343 343 342 342 343 347 349 349 348 347 343 340 336
308 309 310 309 309 310 310 311 311 310 311 312 312 311 313 314 313 313 315 316 321 329 323 326 326 330 334 339 342 342 343 342 342 344 344 349 350 348 346 348 345 341 339
308 306 307 308 307 308 311 310 310 308 308 308 309 310 310 309 309 308 310 311 313 315 314 316 318 320 321 337 339 340 340 340 340 341 345 348 348 346 345 345 347 342 340
306 305 305 304 304 306 307 308 308 307 306 307 308 309 309 307 307 308 308 308 309 310 311 310 311 313 315 318 331 338 339 341 340 341 340 346 347 347 345 346 348 343 341
304 303 304 304 303 304 305 306 306 306 306 307 308 307 308 307 306 307 307 307 307 308 309 309 310 311 312 316 318 331 337 337 339 340 339 340 346 346 345 345 348 344 341
303 302 302 303 303 302 303 305 306 305 306 304 305 306 306 307 307 305 306 306 306 307 308 308 309 311 312 315 316 319 330 335 336 338 340 339 339 343 344 346 348 346 343
303 301 302 305 302 302 302 303 303 303 303 303 303 304 305 307 306 305 306 306 306 307 307 307 307 308 309 310 312 316 321 331 333 336 338 340 337 336 341 344 346 347 344
302 301 301 302 301 302 301 301 301 302 302 302 302 303 303 306 306 304 305 305 305 305 305 306 305 305 305 307 308 309 311 318 332 335 334 335 338 337 334 340 343 344 347
302 301 301 302 301 300 300 300 301 301 301 301 301 301 302 304 304 304 305 304 305 304 303 303 302 304 305 307 309 310 311 314 318 329 332 334 335 337 335 333 336 338 344
300 300 300 301 300 299 299 298 297 297 298 300 300 301 301 303 303 303 303 303 303 302 302 302 302 302 302 304 305 306 308 311 311 317 328 332 333 335 335 333 332 332 337
299 299 299 300 300 299 300 298 298 297 298 299 301 301 302 301 302 302 300 301 301 301 301 301 301 300 301 303 300 300 298 302 308 311 319 327 330 333 333 333 332 330 329
298 299 299 299 300 300 299 299 299 299 299 299 299 300 301 301 301 301 300 299 299 299 299 299 299 299 298 300 301 300 296 295 301 305 309 311 324 328 331 331 331 330 330
298 300 300 300 299 300 300 298 296 295 295 296 297 298 299 300 299 300 300 299 299 298 297 298 300 298 297 297 299 303 301 301 297 297 306 309 312 324 327 330 331 331 331
299 299 299 299 299 299 298 298 297 296 297 297 297 297 297 298 299 300 299 298 298 298 298 298 298 298 299 298 298 298 298 299 301 300 298 303 308 315 325 327 330 329 332
300 301 300 299 298 299 299 298 297 296 296 295 295 295 296 297 298 299 300 298 298 298 298 298 298 298 299 299 299 300 298 297 298 299 299 301 302 306 312 326 327 328 330

GFSSE_sfc_thetae_003.txt.gz
Theta_e
348 358 367 365 363 363 364 362 362 362 362 361 360 361 362 361 360 360 359 360 360 359 358 359 358 358 358 359 358 359 360 360 359 360 359 360 359 359 359 358 358 355 358
353 359 366 365 363 362 361 362 361 361 361 362 363 362 361 361 361 360 360 359 358 358 357 357 356 356 357 357 357 360 360 359 358 358 358 357 357 360 358 358 358 355 358
355 358 362 366 365 361 360 360 360 360 361 362 362 361 360 360 360 359 359 358 357 357 357 357 356 355 355 356 358 360 359 357 356 356 357 352 353 358 358 357 357 356 355
355 361 360 364 366 364 361 363 362 361 361 362 361 359 359 358 358 358 358 358 358 357 357 356 355 356 355 356 357 358 358 356 355 356 352 353 351 357 357 358 356 355 354
354 359 361 366 365 364 363 363 363 361 360 360 360 360 358 358 356 357 357 358 358 359 358 357 359 355 354 355 355 357 358 355 355 353 349 348 350 355 358 357 354 354 353
351 357 362 365 363 362 363 361 357 357 357 358 360 358 357 354 353 355 351 354 357 358 358 358 359 356 357 355 354 354 355 354 355 349 348 351 349 356 355 354 353 351 349
350 356 357 362 362 361 359 356 354 353 355 355 355 354 354 354 352 352 349 351 351 352 352 354 356 355 355 356 354 354 355 352 345 342 344 346 349 357 355 353 350 348 346
348 354 357 360 359 357 353 352 352 351 352 352 347 347 355 355 352 351 353 351 349 350 350 350 350 353 354 354 356 354 355 348 343 342 345 347 354 356 355 352 348 344 343
332 349 350 346 350 355 353 351 349 348 345 343 342 341 341 339 339 344 346 350 353 352 350 349 346 348 351 353 353 353 350 346 339 340 344 344 354 355 354 350 347 344 342
318 324 339 343 340 334 332 346 343 343 340 334 333 335 333 332 333 333 336 342 345 347 347 351 348 349 350 351 352 353 350 346 340 339 337 343 348 351 353 349 347 344 341
314 313 312 313 312 315 318 321 322 329 330 328 324 328 321 316 318 318 328 334 335 340 339 343 344 348 348 349 350 352 350 338 334 335 337 344 349 351 353 349 346 343 342
306 308 307 307 308 308 314 309 308 311 310 310 309 310 311 310 314 317 320 325 328 330 330 329 330 331 338 336 339 346 344 338 336 339 341 345 347 351 351 350 346 343 340
304 305 306 304 306 308 308 306 305 305 306 307 307 308 308 309 308 308 308 310 312 320 315 315 314 314 316 324 335 336 340 341 339 340 342 345 348 349 351 351 348 344 340
304 301 304 304 304 305 306 306 304 304 303 304 305 306 304 305 305 305 306 307 308 310 308 309 309 311 311 313 319 332 335 337 339 342 344 348 349 349 351 350 350 346 342
302 301 301 301 301 303 303 303 303 302 302 303 303 304 303 304 303 305 305 306 306 307 307 307 307 309 310 312 314 319 327 336 339 342 344 347 349 350 350 348 349 349 344
300 300 300 301 300 301 301 302 302 301 302 301 302 303 305 304 303 304 305 305 305 305 306 306 306 307 308 310 312 314 318 328 336 339 340 340 346 348 349 348 350 349 345
298 299 299 300 300 300 301 301 301 300 301 299 300 302 303 304 303 303 304 304 304 305 306 306 306 306 306 308 306 309 310 317 325 333 337 339 341 343 346 347 348 349 347
298 297 299 304 300 299 299 299 299 299 299 298 299 300 301 305 303 302 303 303 304 304 305 304 303 303 303 303 304 306 307 309 312 319 332 336 339 340 342 344 346 348 348
298 297 298 298 299 299 298 298 298 299 298 298 298 298 299 303 304 301 303 302 303 303 302 302 302 302 302 303 304 306 307 309 312 316 321 330 335 337 338 340 343 344 347
298 297 297 298 297 297 297 297 297 297 297 298 298 298 299 300 302 300 301 302 302 301 301 301 300 301 301 302 306 304 304 306 305 308 313 317 323 333 336 336 337 339 344
298 296 296 297 296 297 296 295 294 294 295 296 297 299 299 300 301 299 300 301 301 300 299 300 300 299 299 301 300 300 300 301 302 303 310 308 312 324 332 335 334 336 338
297 296 295 297 297 296 296 296 295 294 295 296 298 298 299 299 299 300 298 299 299 298 298 297 298 297 298 299 297 297 294 296 299 303 303 304 308 313 316 330 333 333 333
295 296 295 296 297 297 297 297 296 296 295 295 296 296 298 299 299 298 298 297 297 297 296 296 296 296 295 296 297 297 292 290 296 300 300 301 305 310 314 317 330 332 332
296 295 296 296 296 297 297 296 294 293 292 294 294 296 296 297 297 298 298 297 296 296 296 296 299 296 295 294 296 299 298 298 293 291 297 299 303 308 309 313 315 329 331
297 295 296 296 296 297 296 296 295 294 294 295 295 294 294 296 297 298 297 296 296 296 296 296 296 296 296 294 294 295 296 296 296 295 292 295 299 304 308 309 310 310 328
297 297 296 296 295 296 296 296 295 294 294 293 293 293 294 295 296 296 297 296 296 296 295 296 296 295 296 296 296 296 296 295 295 295 294 294 294 299 306 308 309 311 313

GFSSE_sfc_thetae_006.txt.gz
Theta_e
347 355 365 363 362 362 362 361 360 362 360 359 360 360 361 360 359 359 359 359 358 358 357 356 356 357 357 358 356 359 359 359 358 360 360 360 360 359 360 359 359 354 357
352 358 364 362 362 361 361 360 359 361 360 360 360 360 360 359 359 359 358 357 358 357 356 356 355 354 356 356 358 359 358 357 357 358 358 359 358 360 359 358 358 355 356
353 359 361 364 362 360 360 359 360 360 360 360 359 359 359 358 358 358 358 358 357 356 355 355 355 354 354 355 356 358 358 356 355 355 356 351 354 359 359 358 358 354 354
356 359 358 362 362 361 360 359 359 359 359 359 358 357 356 356 355 356 357 358 358 358 357 356 355 355 353 354 355 358 357 356 355 356 351 351 352 358 358 358 355 355 354
355 357 358 362 363 362 360 360 358 357 357 357 357 356 352 351 349 348 351 354 355 357 358 357 356 354 352 354 353 353 356 355 355 352 348 347 348 354 357 356 355 353 353
352 355 361 362 361 360 357 353 354 353 352 351 352 352 350 349 348 346 345 346 346 349 352 355 356 356 354 353 354 353 352 354 352 345 345 347 348 356 357 355 355 353 352
350 354 356 360 359 357 354 350 348 350 347 346 347 350 351 346 349 348 346 346 347 346 345 346 351 354 355 354 353 354 353 352 343 341 343 345 348 358 356 355 354 351 350
351 354 356 359 356 353 348 347 348 342 338 338 339 339 341 340 340 340 343 347 346 347 348 344 345 348 351 354 354 353 354 348 342 341 343 345 350 356 356 355 352 349 347
350 350 344 345 349 351 349 348 341 336 335 334 335 335 333 334 333 335 336 339 339 339 341 345 345 347 345 350 352 352 353 347 337 339 342 343 352 354 356 354 350 347 345
335 342 338 335 332 330 323 338 334 333 331 330 331 329 326 325 326 329 331 333 335 334 336 336 338 347 344 344 349 352 351 348 340 338 337 339 349 352 353 354 349 346 344
314 315 313 310 310 312 311 318 322 326 325 324 320 323 314 309 312 313 324 328 330 329 329 330 330 329 328 329 343 348 351 344 339 334 334 338 344 351 350 351 349 346 344
306 305 306 305 306 307 311 305 305 309 306 306 307 306 306 306 311 313 317 323 324 324 324 324 324 323 319 315 325 333 339 339 336 335 338 343 345 348 350 349 349 346 344
304 305 304 303 305 307 305 303 302 302 303 304 304 304 304 306 305 305 305 307 308 316 309 311 310 310 309 312 314 317 328 336 337 337 341 344 345 349 351 349 349 346 344
303 302 303 304 304 304 305 302 302 302 301 301 302 303 302 302 303 303 303 304 305 305 305 305 306 307 308 310 310 312 315 322 331 339 342 345 348 349 351 350 350 348 344
301 300 302 301 301 301 302 301 300 300 300 301 301 302 302 302 301 302 303 303 303 303 304 304 304 305 305 306 307 308 310 312 319 326 335 344 348 348 348 351 351 349 347
300 299 299 301 299 301 300 300 298 299 299 299 300 301 303 302 300 302 302 303 302 302 304 303 302 303 302 304 304 305 305 307 311 315 321 328 337 344 346 347 350 350 349
299 299 298 299 300 299 299 300 298 300 299 297 299 300 302 303 301 301 302 301 301 302 303 303 302 302 302 304 302 304 306 305 308 311 315 321 329 337 341 343 346 348 348
298 297 298 303 300 298 298 298 298 298 298 297 298 298 301 303 301 300 301 301 301 302 302 301 301 300 300 300 299 301 302 305 306 304 307 311 315 319 328 338 342 346 347
298 296 297 298 298 298 296 296 297 297 297 297 297 297 298 302 302 299 300 300 301 300 300 300 300 300 298 299 301 300 301 303 302 303 304 308 310 311 316 327 336 341 344
296 296 297 296 296 296 295 295 296 296 296 296 296 297 298 299 300 298 298 299 300 299 298 299 297 299 298 298 302 302 300 300 299 299 299 304 304 305 309 312 316 332 341
296 295 295 295 294 295 294 294 293 293 294 295 296 298 297 298 299 297 297 298 299 298 297 298 297 297 296 297 296 295 296 296 295 297 301 302 301 302 307 313 315 319 333
296 295 294 296 295 295 295 294 294 293 294 295 296 297 297 298 298 297 297 296 297 296 296 295 295 294 296 296 293 292 289 292 294 297 298 299 298 302 303 306 313 315 314
297 296 295 295 296 296 296 295 294 294 294 294 295 295 296 298 298 297 296 296 295 295 294 294 294 293 292 294 295 293 288 287 293 294 296 296 297 299 301 306 313 313 312
298 297 296 296 296 296 295 295 294 293 292 293 293 294 295 296 295 296 296 295 294 294 294 294 297 294 293 292 293 297 295 294 291 290 295 296 298 298 299 300 304 311 311
298 297 296 295 296 296 295 295 294 292 293 294 293 293 293 294 295 296 295 295 294 294 294 294 294 294 293 292 292 292 293 294 293 292 290 294 298 299 299 299 301 308 311
297 296 295 295 296 295 295 294 294 293 293 292 292 292 293 293 294 295 296 295 294 294 294 295 294 293 293 293 294 294 293 293 292 292 293 294 294 296 298 298 301 307 309

GFSSE_sfc_thetae_009.txt.gz
Theta_e
346 352 362 361 360 361 360 359 361 358 358 359 359 360 359 359 359 358 358 357 357 356 356 356 356 356 357 357 358 358 358 358 356 357 359 360 361 360 359 359 358 354 357
352 357 362 361 360 361 359 359 360 359 360 359 359 357 358 358 358 358 357 357 357 356 356 355 355 354 356 356 358 358 356 356 356 359 358 358 359 359 358 358 357 354 356
355 359 359 361 360 360 359 359 359 359 359 358 357 356 356 356 356 357 357 358 357 356 355 354 355 353 354 355 357 357 355 355 356 356 357 352 354 358 357 357 357 355 355
355 357 357 360 361 360 359 358 358 357 356 355 354 352 351 348 349 352 353 354 355 357 357 356 355 354 353 354 354 356 356 354 355 355 349 351 353 358 358 357 354 355 354
354 355 355 360 361 360 359 358 355 353 353 352 352 350 348 345 344 345 346 346 349 353 354 356 356 354 353 353 354 353 354 354 355 350 347 347 346 356 357 356 354 354 354
351 354 359 360 359 358 354 354 353 349 345 347 350 349 346 347 345 344 343 343 344 345 346 351 354 355 354 353 352 353 353 353 351 341 344 347 347 354 357 355 354 353 352
348 352 354 358 355 351 350 347 345 341 342 344 349 343 343 346 344 344 345 344 343 343 343 345 347 351 354 354 353 353 353 352 342 340 342 344 347 355 355 355 354 352 351
349 352 354 357 354 350 344 341 339 338 338 339 339 338 338 338 338 339 340 340 340 340 342 343 345 344 347 352 354 354 353 348 341 340 341 343 348 352 354 353 353 351 350
350 348 347 346 346 349 348 338 336 335 335 335 333 332 331 331 333 334 336 337 336 338 337 339 343 339 336 345 350 353 352 347 336 338 340 339 347 352 353 351 351 350 348
342 339 335 331 329 319 323 336 334 332 331 331 328 326 324 323 325 329 330 332 332 332 332 332 332 330 330 335 339 345 351 349 339 337 336 336 345 349 350 349 350 349 347
331 329 323 318 315 310 312 324 325 327 326 322 318 321 312 308 310 313 325 327 327 326 326 327 327 326 324 325 329 333 338 340 342 336 336 339 344 347 347 349 348 348 346
315 311 308 307 306 305 309 303 304 308 304 304 303 303 304 304 310 311 317 321 322 321 321 322 322 320 315 311 313 320 320 326 335 338 336 343 346 348 348 348 349 348 347
308 305 305 303 305 305 303 301 301 301 302 302 301 302 302 304 303 303 304 304 304 313 306 308 307 307 306 308 308 310 313 316 322 328 337 343 346 348 349 349 349 348 348
303 303 304 304 304 304 304 301 300 300 300 300 300 302 301 300 301 301 302 302 302 303 303 303 302 303 304 305 303 303 305 308 313 317 322 329 335 342 347 347 348 348 348
302 301 302 302 301 301 300 299 300 300 299 300 300 302 301 300 300 301 301 302 301 302 302 301 301 302 301 302 302 302 303 304 307 312 315 322 325 333 339 344 346 347 348
302 301 301 301 300 300 299 298 298 298 298 299 299 301 302 300 300 301 300 301 300 300 301 300 300 300 299 300 301 302 302 302 305 306 309 310 320 323 328 332 339 343 345
300 299 299 300 300 299 299 298 297 298 298 298 298 300 302 301 299 300 300 299 299 300 301 300 299 300 298 300 298 300 301 302 302 299 303 307 311 313 315 318 324 332 340
300 297 297 303 299 298 298 298 297 297 296 297 297 297 302 302 300 299 299 299 300 300 300 299 298 299 297 297 296 297 298 300 298 299 302 306 303 305 307 313 318 323 327
301 296 296 298 298 298 296 296 296 296 295 296 296 296 299 302 300 298 298 298 300 299 298 299 297 298 296 296 299 297 297 297 297 298 296 302 301 302 302 309 313 316 321
299 297 297 297 297 296 295 294 294 295 295 295 295 296 297 299 299 297 297 297 298 298 297 297 295 297 296 296 300 298 296 297 296 295 296 299 300 299 301 305 303 307 318
296 295 296 296 295 295 293 292 292 293 293 294 295 297 296 297 298 296 296 296 297 297 295 296 295 295 294 295 294 293 293 294 292 294 294 297 298 299 300 301 302 305 311
297 296 296 297 295 296 296 293 293 292 293 294 296 296 296 296 297 296 295 295 296 295 294 294 294 293 294 294 292 290 287 289 291 295 295 297 295 296 299 300 302 302 306
298 296 296 296 296 296 295 294 293 293 293 294 294 295 295 296 297 296 295 294 294 294 293 293 293 292 291 293 293 292 287 285 291 291 292 294 293 295 297 298 300 302 302
299 298 297 297 296 297 295 294 293 293 291 292 293 294 294 295 295 295 295 294 293 293 293 293 296 293 292 291 291 296 293 292 288 288 291 293 294 296 296 298 299 300 301
301 297 297 297 296 297 296 296 294 292 292 292 292 293 292 293 294 295 294 294 293 293 293 293 292 292 292 291 290 291 290 291 291 290 288 291 295 296 297 297 298 299 300
300 298 296 296 296 296 295 295 294 293 292 292 291 292 292 292 293 294 295 294 293 293 293 293 293 292 291 291 291 292 291 290 289 289 288 291 292 295 296 298 298 299 301

GFSSE_sfc_thetae_012.txt.gz
Theta_e
344 351 361 360 359 360 358 360 358 357 359 358 359 359 358 359 358 357 357 358 357 357 356 356 356 357 357 358 358 358 358 356 355 358 359 361 360 359 360 359 358 355 357
348 355 362 361 360 358 358 360 358 359 359 356 356 357 357 357 358 358 358 357 357 356 356 356 355 356 357 356 358 357 357 355 356 358 358 359 358 359 359 358 357 355 357
354 357 357 360 360 359 358 358 359 358 358 356 354 355 354 354 354 355 356 358 358 357 356 355 356 354 356 355 357 357 355 356 356 356 355 353 356 358 358 357 357 357 356
356 357 356 359 360 359 358 357 356 355 354 353 350 349 345 346 348 350 349 351 354 356 357 356 355 355 355 355 355 356 355 355 356 355 350 352 353 355 356 356 356 355 354
352 354 354 359 360 359 358 355 353 352 350 349 349 347 345 344 344 344 344 346 347 348 353 355 356 355 354 354 354 354 354 355 355 349 347 348 348 352 355 355 354 353 353
349 351 357 359 358 358 355 354 349 346 348 349 349 345 347 346 343 344 344 343 344 344 346 349 352 355 356 354 353 354 353 355 348 342 344 347 349 352 355 355 353 353 353
348 351 352 358 355 353 351 346 343 343 348 349 344 343 342 343 341 342 341 343 343 343 344 346 345 348 352 354 355 352 354 351 341 340 342 344 347 352 352 353 351 352 351
347 350 352 356 352 350 346 342 340 341 341 341 339 338 338 338 339 339 339 338 340 339 344 345 341 339 346 350 352 354 352 347 340 339 340 341 346 352 352 351 350 351 350
348 348 346 344 345 348 342 339 337 338 337 335 333 333 332 333 334 335 336 336 335 335 336 337 335 334 338 339 344 349 351 348 338 339 341 340 345 349 351 349 349 349 349
345 342 336 332 324 325 327 337 335 334 333 331 329 326 325 325 329 330 331 331 331 330 331 331 330 329 330 333 335 336 339 344 340 338 337 339 346 349 349 350 349 348 348
338 333 328 320 313 315 319 327 329 330 326 324 321 320 314 308 309 314 325 326 326 326 326 326 325 324 321 322 325 325 325 325 335 338 338 344 347 349 349 347 349 348 348
326 322 319 312 306 305 311 305 305 308 302 302 302 302 302 305 310 312 317 320 322 320 320 320 319 318 312 307 308 315 312 316 321 324 328 336 342 348 349 349 348 348 348
325 316 310 306 304 304 303 301 300 300 300 300 301 301 301 302 302 302 302 302 303 311 304 305 304 304 303 303 304 305 307 309 311 315 322 328 334 341 345 348 347 348 348
315 313 307 305 304 302 303 300 299 299 299 298 300 300 299 300 300 300 300 300 301 301 300 300 300 301 301 302 300 301 302 304 306 309 314 322 327 331 334 338 340 344 346
313 308 304 303 302 301 300 299 299 300 298 299 299 301 299 300 299 300 299 299 299 300 299 299 299 298 299 299 300 300 300 301 302 305 307 318 320 321 324 326 330 333 337
313 305 303 303 301 300 299 299 298 298 298 299 299 300 300 299 299 300 299 299 298 299 299 298 298 297 297 297 298 299 299 299 299 300 303 307 313 314 316 319 323 327 331
304 303 301 301 300 299 298 297 298 297 299 298 298 300 300 300 299 299 298 298 298 299 299 298 297 297 296 298 296 296 298 298 298 298 301 304 303 308 310 314 317 319 323
304 299 300 305 300 298 297 297 297 296 296 297 296 298 300 300 299 298 298 298 299 299 298 298 297 297 295 295 295 295 295 296 297 295 298 301 301 302 303 311 313 314 317
305 300 298 299 299 298 297 296 295 295 295 296 295 296 300 301 299 298 297 297 299 298 297 298 295 296 294 294 297 296 294 294 295 297 294 297 300 300 300 307 310 310 314
304 300 299 299 298 296 295 294 293 294 294 294 295 295 297 299 298 296 296 297 297 297 295 295 294 295 295 294 298 296 293 293 295 294 294 297 299 299 299 303 300 303 311
299 297 297 298 297 296 294 293 291 292 292 293 294 296 296 297 298 295 295 296 297 296 294 295 294 294 293 294 292 292 292 292 292 293 293 295 298 298 297 300 300 302 302
300 299 298 298 297 297 297 293 293 292 292 294 295 295 296 296 297 295 294 295 295 294 293 293 293 292 292 293 291 289 286 289 290 292 294 295 295 295 297 299 299 301 300
301 299 298 298 297 297 297 294 292 293 292 293 293 294 295 295 296 295 294 294 294 293 293 292 292 292 290 291 292 290 286 284 288 290 291 292 293 294 295 297 299 300 300
302 300 300 299 297 297 296 295 293 293 291 292 293 294 294 295 295 295 294 294 293 293 292 292 294 292 291 289 290 294 292 290 287 286 290 292 292 294 295 296 297 298 299
303 300 300 298 297 297 296 297 295 291 292 292 292 293 292 293 293 294 294 293 292 292 292 292 291 291 291 290 289 289 289 290 289 288 287 289 293 293 295 295 296 297 299
303 301 299 297 297 297 296 296 295 294 292 291 291 291 291 292 292 293 294 292 292 292 292 292 291 291 290 290 290 290 290 289 288 288 286 290 290 293 295 295 296 298 299

GFSSE_sfc_thetae_015.txt.gz
Theta_e
351 358 361 359 359 360 359 358 356 358 359 358 358 358 360 359 358 358 358 358 358 358 357 357 357 358 358 359 358 358 358 357 357 359 360 360 359 360 360 359 359 357 358
352 358 361 361 360 358 360 358 359 358 357 358 358 357 356 358 359 359 359 359 358 357 356 357 356 358 357 358 358 358 357 356 357 358 358 357 357 359 358 359 357 357 357
353 358 359 360 361 358 356 358 358 359 356 355 353 351 353 353 354 354 355 357 359 358 357 356 356 356 357 356 358 357 356 357 357 356 356 356 356 356 356 356 357 357 356
355 358 357 360 361 360 359 357 355 354 353 351 348 346 346 347 347 348 349 351 351 356 357 357 356 355 356 356 356 356 356 356 357 354 353 355 356 354 355 355 355 356 354
355 357 357 360 361 359 356 353 352 351 350 349 348 346 345 344 344 345 345 346 346 350 352 354 356 356 355 354 355 355 356 357 353 352 353 356 358 353 351 353 354 354 353
353 356 358 360 360 358 354 353 349 350 350 349 345 349 346 344 345 344 345 345 345 346 348 348 351 354 356 355 354 354 355 353 349 352 353 353 354 353 353 350 350 351 352
352 355 356 359 358 355 352 347 347 350 350 346 344 343 342 342 342 341 341 341 342 347 347 343 344 350 352 353 355 353 354 350 350 350 351 352 353 353 352 349 347 349 350
351 354 354 358 356 353 346 344 344 346 345 343 340 340 340 340 340 340 339 338 339 340 341 338 338 342 344 347 351 354 351 347 347 348 348 347 349 351 353 349 348 349 348
352 352 354 350 350 351 344 342 342 341 339 338 336 335 336 336 337 336 336 335 335 335 336 335 334 336 338 339 342 348 350 347 348 346 345 347 348 351 351 351 348 348 348
351 352 349 344 341 337 337 339 339 337 335 333 331 329 330 331 332 332 331 331 331 331 331 330 329 328 331 332 332 333 335 338 344 344 343 344 348 350 350 348 350 348 348
346 347 343 336 334 333 333 334 335 333 331 328 325 323 319 320 323 326 327 327 327 327 326 325 324 321 319 323 325 325 325 324 332 335 335 339 346 349 349 350 348 349 347
337 339 338 330 328 329 327 325 323 318 314 314 311 313 315 317 318 319 322 322 321 321 321 320 318 316 314 313 313 316 316 317 321 327 327 332 338 344 346 347 349 349 348
338 338 333 324 323 323 318 314 312 310 309 310 310 311 311 311 311 310 311 311 311 312 310 310 309 310 311 311 311 310 310 311 314 317 322 328 331 335 337 338 339 341 344
337 337 330 320 315 316 314 311 311 309 309 309 309 309 310 310 309 309 309 310 309 309 308 308 307 308 307 308 309 307 307 308 309 311 317 319 323 325 328 331 333 335 337
334 333 325 318 313 312 312 310 309 310 308 309 309 309 310 310 309 309 308 309 308 308 307 307 306 306 306 305 305 305 305 306 307 309 311 314 316 318 321 324 326 328 330
332 329 322 316 313 311 310 309 309 310 308 309 309 308 309 310 309 309 308 308 308 308 307 307 305 305 305 304 304 304 305 305 306 305 306 309 311 313 315 318 320 322 324
330 330 319 316 312 310 310 309 309 308 308 308 309 308 309 309 309 308 308 307 308 308 307 306 306 305 304 304 304 304 304 305 305 303 306 307 307 308 310 314 316 317 319
325 325 318 314 310 310 308 308 307 307 307 307 308 308 308 308 309 308 307 307 308 308 308 306 306 304 304 303 303 304 304 306 305 303 304 306 307 306 306 311 312 313 315
318 320 316 312 310 308 307 306 306 306 306 306 306 308 308 308 308 308 307 307 308 307 307 305 305 305 303 303 302 304 303 305 305 304 303 304 306 307 306 307 309 309 313
314 315 315 311 310 308 306 305 305 304 304 305 305 306 307 307 306 307 306 307 307 306 306 305 304 304 304 303 301 301 302 304 306 304 303 303 304 306 306 307 307 307 309
312 311 309 309 308 306 303 302 302 301 301 303 304 304 306 306 305 306 305 305 306 305 305 304 304 303 303 303 301 300 301 302 303 304 304 303 303 304 304 306 306 306 306
310 310 308 308 307 305 306 305 304 303 302 303 304 304 304 305 305 304 304 305 305 304 304 303 304 302 303 303 298 298 295 299 301 301 302 302 302 303 303 304 304 305 306
308 308 308 307 307 306 306 303 300 301 301 301 301 302 302 303 305 304 303 304 304 304 303 303 303 302 300 302 300 299 295 293 296 300 300 301 301 301 302 303 304 304 305
308 309 309 307 307 306 305 302 301 302 301 302 302 302 302 303 303 303 303 303 303 303 302 302 302 302 301 299 300 300 301 299 294 293 299 300 301 300 301 302 303 304 305
310 309 308 307 306 306 302 304 303 304 305 302 301 301 302 302 302 303 302 302 302 302 302 302 302 301 301 300 299 299 299 299 299 296 292 296 299 301 301 301 302 303 304
310 310 308 306 305 305 303 304 303 303 301 300 300 301 301 301 301 302 301 302 302 302 302 302 302 301 301 300 300 299 299 297 296 296 294 295 295 298 300 302 302 303 304

GFSSE_sfc_thetae_018.txt.gz
Theta_e
349 356 361 359 359 358 360 356 357 358 358 357 358 359 360 359 359 359 359 358 358 358 358 357 359 357 359 358 358 358 357 357 359 359 359 359 359 359 359 359 359 357 358
349 354 361 360 360 358 359 357 357 356 358 358 357 357 357 357 357 359 360 360 358 358 357 357 357 359 357 358 358 358 357 357 358 357 357 359 359 358 358 357 357 357 358
349 352 358 361 360 359 356 359 359 357 356 351 351 352 353 352 352 353 354 354 358 358 358 357 356 357 356 357 357 357 356 357 356 356 354 355 355 355 355 355 356 357 355
350 352 353 361 360 359 360 357 356 353 352 347 347 347 347 347 348 349 349 349 353 355 357 358 356 355 356 356 356 357 356 357 354 352 353 353 352 355 352 351 352 355 354
351 351 355 360 362 360 356 354 353 351 349 347 347 345 345 344 345 346 346 347 348 351 352 354 357 356 356 355 355 355 358 354 351 353 353 355 354 352 352 350 351 353 351
350 351 359 361 360 357 354 353 351 349 349 346 350 346 344 345 344 345 345 346 347 349 346 348 353 355 355 356 354 355 356 351 352 355 355 353 355 353 352 350 350 350 349
347 349 353 361 360 355 353 350 350 352 348 345 345 344 342 342 342 341 342 341 345 344 341 344 347 349 350 353 355 356 353 350 351 352 353 353 353 353 353 349 347 347 348
345 347 349 359 358 354 349 348 351 349 346 344 342 341 341 341 341 340 338 338 339 340 339 338 341 344 345 348 354 354 350 350 351 350 350 351 350 351 353 352 348 347 348
344 345 346 353 355 351 346 346 347 346 343 341 339 339 338 339 338 337 336 335 336 336 335 334 335 337 339 341 344 348 348 348 348 347 346 346 348 350 351 350 350 348 348
343 343 343 348 351 346 342 344 343 341 339 336 335 335 335 334 334 332 332 332 332 332 331 330 329 331 333 333 334 336 337 342 347 345 344 342 349 350 349 350 348 349 348
341 342 343 343 346 343 338 339 339 337 335 332 329 328 326 327 328 328 328 328 328 327 327 325 323 322 321 325 326 327 333 336 341 340 338 339 346 347 348 350 350 349 348
339 341 343 341 342 339 333 335 331 331 328 323 321 319 319 321 322 324 324 323 322 322 321 319 317 316 317 320 322 323 325 328 333 333 333 335 338 341 341 342 343 344 346
338 342 342 340 340 337 332 331 327 321 318 317 316 317 318 318 317 317 317 316 315 312 314 313 313 314 314 316 316 316 318 320 324 326 323 326 328 331 335 336 338 338 341
337 340 342 340 338 336 332 326 321 317 316 315 315 315 316 315 314 314 314 314 314 314 312 313 312 311 311 311 311 310 312 314 317 319 318 319 321 324 327 329 330 331 333
335 338 341 341 335 334 329 323 319 318 316 316 315 315 315 315 314 313 313 313 313 313 312 311 311 311 309 308 308 309 309 309 311 313 315 314 316 318 322 324 325 326 327
335 337 340 339 334 331 326 322 319 318 317 316 315 315 315 315 314 313 312 312 312 313 313 312 311 311 310 309 308 307 309 309 310 309 312 313 311 313 317 319 320 320 322
334 337 337 337 333 328 324 322 320 319 316 316 316 314 314 315 314 313 312 312 312 312 310 311 310 311 310 310 308 309 309 310 310 308 310 311 311 308 311 314 316 317 318
332 334 336 334 331 326 323 321 319 318 316 316 315 314 314 314 314 313 312 311 312 312 311 310 310 310 310 310 309 310 310 309 308 308 309 309 310 309 308 310 312 314 315
327 331 334 334 328 325 323 321 319 318 316 316 315 314 314 314 313 313 312 312 312 311 310 309 309 310 309 309 307 308 308 308 308 306 307 308 309 310 309 308 309 308 312
324 326 331 334 328 326 324 320 319 316 316 315 314 314 313 313 313 312 312 311 311 310 309 309 308 309 309 308 305 305 307 308 308 307 307 307 307 308 309 309 310 309 308
321 323 325 329 328 327 322 318 316 313 313 313 313 313 313 313 312 312 311 310 311 309 309 309 308 306 307 308 305 306 306 306 305 307 307 306 306 307 308 307 308 308 308
318 320 321 324 327 327 323 321 318 316 315 314 313 312 313 312 311 310 310 310 310 309 309 308 308 306 307 307 303 303 303 303 306 305 306 306 305 306 306 306 307 307 308
317 318 319 321 322 326 321 320 317 316 314 311 310 310 310 311 310 309 309 309 309 309 308 308 308 307 304 306 304 302 300 300 300 305 304 305 305 305 306 306 306 307 307
316 318 318 319 319 322 321 318 314 312 308 310 310 310 309 309 309 309 308 308 308 308 307 307 307 306 305 302 304 303 304 301 298 297 304 303 304 303 305 306 305 306 307
314 315 317 318 318 319 318 318 315 313 314 313 311 310 309 308 309 309 308 307 307 308 307 307 305 305 305 303 303 303 302 302 301 298 296 300 302 304 304 305 305 306 306
315 315 316 316 316 318 318 317 316 315 314 314 311 309 308 308 308 308 307 307 307 307 307 306 306 305 305 304 303 303 301 300 299 298 297 297 297 300 303 304 305 305 306

GFSSE_sfc_thetae_021.txt.gz
Theta_e
346 356 361 359 360 359 357 356 358 357 357 359 359 360 361 361 361 361 360 359 358 358 358 358 358 358 359 359 358 358 357 359 359 360 359 360 360 359 359 358 359 355 359
346 351 360 359 358 360 356 355 357 357 359 357 356 356 356 355 356 357 357 359 358 358 358 358 358 358 358 359 358 357 357 357 357 356 357 360 359 358 357 358 359 357 358
346 352 356 361 358 360 359 361 356 356 352 352 352 352 351 352 352 352 353 355 357 358 357 357 358 357 357 358 357 357 357 356 354 353 357 354 354 356 355 355 356 356 356
347 352 354 362 360 358 360 358 355 354 349 347 348 347 348 348 348 348 349 351 354 355 356 357 356 356 356 356 357 357 357 353 351 354 354 351 351 355 352 353 353 354 354
347 351 358 363 362 361 357 355 353 351 348 347 346 346 346 346 347 348 348 349 351 349 351 356 356 357 356 355 355 358 355 351 353 356 354 355 355 352 353 352 351 352 352
350 351 358 361 361 357 355 353 351 351 349 348 347 345 345 344 344 344 345 348 348 345 349 351 352 353 355 356 355 357 353 352 354 353 353 354 354 354 352 351 351 349 348
349 350 352 361 359 356 354 352 350 350 348 348 345 343 343 342 342 342 341 342 343 341 342 346 348 350 351 355 356 354 351 351 350 350 350 350 352 353 354 351 348 348 347
347 347 352 361 359 356 352 351 351 350 346 345 343 342 341 342 340 339 338 339 339 339 338 340 342 344 347 353 354 352 351 352 350 349 347 349 350 350 352 352 349 347 347
343 342 344 351 356 354 350 351 352 348 345 343 342 340 340 340 338 337 336 336 336 336 335 335 337 339 340 344 347 348 348 350 347 346 343 346 350 348 350 350 350 349 347
339 340 339 349 352 350 346 349 348 346 343 340 339 337 337 337 334 332 334 332 332 332 331 330 330 333 334 335 336 336 338 345 345 345 341 343 348 350 350 350 349 349 348
338 339 338 343 348 346 344 344 344 342 339 337 335 335 333 330 330 329 330 329 328 327 326 325 323 321 324 328 328 327 333 340 340 339 337 338 344 346 347 347 348 349 350
336 337 338 339 342 345 341 341 336 333 331 329 325 323 323 324 325 326 326 325 323 321 320 318 316 316 321 321 322 325 327 332 335 333 329 331 335 340 341 341 343 344 346
336 338 338 339 339 341 339 337 332 330 327 323 321 320 320 322 321 322 320 319 317 315 315 315 315 314 315 317 317 318 320 322 325 327 322 324 327 331 334 335 335 336 338
334 337 338 338 337 337 339 334 332 327 321 318 318 318 319 318 317 316 316 316 315 315 313 313 312 312 313 311 311 310 312 314 317 320 317 319 322 325 327 329 330 331 332
332 335 338 340 337 336 335 334 331 324 318 318 318 317 318 318 316 316 315 315 314 314 313 312 312 311 310 309 309 309 309 309 311 313 316 314 316 319 322 323 324 325 327
332 333 337 339 338 335 333 332 329 323 319 319 318 318 317 318 317 316 315 314 314 313 313 312 311 311 310 310 309 308 309 309 310 309 311 313 312 313 316 318 319 320 322
330 332 334 338 340 335 332 331 330 325 320 319 318 318 317 318 317 316 315 314 314 313 311 311 310 310 310 309 308 309 309 309 309 308 310 311 312 312 311 313 315 316 318
327 329 332 336 338 337 331 330 327 324 321 320 318 318 316 317 317 316 315 314 314 313 312 311 310 309 309 309 308 309 309 308 308 307 309 309 311 310 311 310 311 312 314
323 326 329 334 336 336 332 328 325 323 322 320 318 318 317 317 316 316 315 314 314 313 312 311 310 309 308 309 308 307 308 308 308 307 307 309 311 311 311 310 309 311 310
321 323 326 331 334 335 333 328 325 323 322 321 319 318 316 317 316 316 316 315 313 312 311 311 309 309 308 308 306 305 307 308 308 308 307 308 310 309 311 311 312 310 309
320 321 324 326 331 334 331 326 323 321 321 320 320 318 317 316 316 317 316 314 314 313 311 311 309 308 308 308 305 307 307 307 306 307 308 307 309 308 309 310 311 310 309
318 320 321 322 326 332 332 329 325 322 322 321 321 319 319 317 316 314 314 314 313 313 312 311 312 308 307 307 303 304 303 304 305 305 307 306 305 307 307 307 307 308 310
316 317 319 320 322 327 333 330 327 324 323 320 319 317 317 316 316 314 314 313 312 313 312 312 311 312 307 307 305 302 300 300 302 305 305 305 306 306 306 306 306 307 307
314 316 318 317 319 322 328 330 326 322 319 319 318 317 315 315 314 313 312 312 312 312 311 311 310 309 309 305 305 304 303 302 298 297 304 304 305 304 305 307 306 306 307
312 313 316 317 317 320 321 328 327 323 322 321 318 315 315 314 314 313 311 311 311 312 310 310 309 307 308 306 306 304 303 303 302 299 296 300 303 304 305 305 306 306 307
311 314 316 315 315 318 321 323 327 323 321 318 316 314 314 313 312 312 311 311 311 311 310 310 309 308 307 305 306 305 303 301 300 300 298 298 298 301 303 305 306 307 308

GFSSE_sfc_thetae_024.txt.gz
Theta_e
350 355 362 360 360 361 357 359 358 358 359 359 359 359 358 360 360 361 361 359 359 359 359 357 358 359 360 360 359 359 358 359 359 360 360 361 361 360 358 360 361 356 357
348 354 362 361 359 359 356 358 357 359 357 356 356 355 356 356 356 356 358 359 359 358 359 359 358 358 359 359 358 358 357 357 356 357 358 358 358 360 357 359 359 356 357
345 352 357 362 360 359 359 358 357 354 353 353 352 352 353 353 352 353 354 357 357 358 357 358 358 357 358 359 358 358 356 354 354 354 357 351 352 357 356 358 357 356 356
347 348 356 361 363 359 360 358 355 352 350 349 349 348 348 349 350 350 352 353 354 354 357 357 357 356 356 356 359 357 353 353 354 356 352 351 350 356 354 354 354 355 354
344 350 358 363 362 360 358 356 354 350 349 347 346 347 347 348 348 348 349 349 348 352 353 355 356 357 356 356 357 355 354 355 356 354 351 350 348 353 354 353 352 353 353
343 354 363 364 363 359 357 355 352 350 349 348 346 346 345 344 344 343 346 345 344 346 348 349 351 352 356 355 357 354 354 355 354 350 349 351 350 354 352 352 354 351 350
344 351 357 364 361 358 355 353 352 350 350 348 344 344 344 343 343 341 341 342 341 341 344 346 347 349 355 356 354 353 353 355 347 347 347 346 347 354 354 351 349 349 349
344 349 353 362 359 357 354 352 351 349 347 345 344 343 343 342 340 339 338 339 338 338 338 340 343 346 348 354 353 351 351 354 347 344 344 346 349 350 351 352 350 348 348
344 343 349 355 355 358 355 353 352 350 346 345 343 342 342 340 339 337 337 336 336 335 335 336 338 340 343 346 348 347 348 350 343 341 341 344 351 350 351 350 350 350 348
336 337 343 349 351 348 346 355 352 349 345 344 341 340 340 338 336 335 334 333 332 332 331 330 331 333 336 337 337 336 339 344 340 337 336 339 347 348 351 351 350 351 350
332 332 331 345 346 346 343 347 349 347 344 341 338 338 336 327 327 326 331 330 329 328 326 325 323 321 327 330 329 328 336 332 334 330 329 338 341 346 346 348 348 348 349
329 330 331 340 344 343 343 341 338 337 332 328 328 326 325 322 324 325 326 327 325 322 320 318 316 318 321 317 316 325 320 325 327 323 324 331 335 339 339 340 342 342 344
329 330 331 330 341 340 338 338 334 331 327 324 320 318 316 320 319 317 315 314 311 317 312 314 310 309 308 310 309 310 312 313 319 318 322 325 328 332 334 334 334 336 338
328 330 331 331 331 335 337 335 331 327 324 319 315 313 314 314 313 313 312 311 309 309 306 306 306 307 306 304 301 302 304 305 310 313 316 321 323 326 329 329 330 331 333
326 329 332 331 330 331 333 331 330 323 319 313 311 311 313 312 309 309 308 308 308 307 305 305 304 304 302 302 302 301 301 301 302 311 309 317 317 320 322 323 324 326 327
325 327 332 333 333 329 329 329 328 322 313 311 312 311 312 312 310 309 308 308 307 306 306 305 303 303 302 301 302 302 301 301 302 303 308 309 315 315 316 318 319 320 322
324 325 329 332 334 333 328 328 327 322 316 312 312 311 311 312 310 309 308 307 307 306 305 303 301 302 302 303 300 301 302 301 302 301 305 307 309 314 314 313 314 315 317
317 320 324 332 334 334 330 326 325 321 315 312 311 311 311 313 312 309 308 308 308 306 305 304 303 302 301 301 300 301 301 302 301 300 303 304 305 306 311 310 310 311 312
315 315 318 325 332 333 333 326 323 320 316 313 311 311 310 312 312 310 309 308 307 306 305 305 304 303 302 302 302 300 301 301 301 303 301 303 304 304 304 310 309 311 311
314 313 313 317 329 332 332 328 321 319 316 314 312 311 311 311 311 309 309 308 307 307 305 304 302 302 302 301 303 301 299 300 301 301 299 303 303 304 304 304 303 305 313
313 314 313 315 317 326 330 327 319 315 313 313 312 311 310 310 310 309 309 308 307 306 305 304 302 301 300 300 298 299 300 299 299 300 301 300 301 302 302 303 303 303 303
309 311 312 314 314 315 327 328 325 318 315 314 313 312 311 311 310 309 308 307 306 306 305 304 302 300 301 301 296 296 293 297 297 298 300 299 298 300 300 301 300 300 301
307 308 310 311 313 314 314 325 321 318 315 313 313 313 312 311 310 310 308 307 306 306 304 303 303 302 298 299 298 296 292 291 294 297 296 298 297 298 298 299 300 301 300
304 308 309 310 311 313 313 313 320 320 316 315 314 314 311 311 310 310 308 307 306 305 304 304 305 302 301 298 297 300 295 294 291 290 296 296 297 297 296 298 298 299 299
305 307 308 309 309 311 312 312 312 318 320 317 315 312 312 311 310 309 308 307 306 306 304 304 302 302 301 299 298 296 295 295 294 292 290 293 296 296 297 297 297 298 299
305 306 306 307 308 310 310 310 310 311 318 318 314 312 311 310 310 309 308 307 306 306 304 304 302 301 300 299 299 298 297 295 294 293 291 291 291 294 295 296 297 298 299

GFSSE_sfc_thetae_027.txt.gz
Theta_e
349 355 363 361 360 358 360 359 359 360 360 360 359 359 359 359 361 361 360 359 360 360 359 358 360 361 360 360 359 358 359 359 359 360 360 360 361 359 358 359 359 353 356
352 356 363 362 362 358 360 358 359 358 357 357 357 357 356 356 356 358 359 359 358 359 359 358 358 359 359 359 358 357 357 357 356 357 358 357 358 359 357 358 359 353 355
351 356 359 362 361 357 359 358 356 356 355 354 354 354 353 353 353 355 357 357 358 358 358 358 357 357 358 358 358 356 355 354 354 355 356 350 351 357 356 357 359 356 354
351 354 357 361 363 360 359 357 354 353 352 351 350 350 350 351 351 353 352 351 353 358 356 358 357 356 357 358 357 355 356 356 357 356 351 349 349 356 355 354 356 355 353
347 354 357 364 363 361 359 356 353 351 349 348 347 347 348 348 348 349 348 348 351 351 353 355 356 356 356 357 356 356 356 357 355 353 350 348 347 353 354 353 354 354 351
345 354 361 364 362 359 358 356 352 350 347 347 347 346 345 345 345 346 345 343 346 347 348 350 350 354 355 357 355 355 356 355 353 348 346 348 348 353 352 352 351 350 350
350 355 359 363 361 359 357 355 351 350 349 346 345 344 344 343 342 342 342 341 341 343 345 345 347 351 356 355 353 353 354 353 346 345 344 345 346 353 353 350 349 349 349
350 356 358 364 362 359 357 354 352 350 350 344 345 344 343 341 340 340 340 339 338 339 340 342 344 347 353 354 352 352 354 351 344 342 344 346 349 350 350 351 349 348 348
348 351 355 356 357 359 357 354 352 350 347 345 344 344 342 341 338 338 338 337 336 336 337 337 339 343 347 346 347 347 348 349 338 340 341 345 350 352 350 349 350 349 348
345 349 352 351 352 350 349 356 352 349 347 344 343 343 341 339 336 337 335 335 334 333 333 333 334 335 338 339 338 338 339 343 334 333 334 339 347 347 348 350 350 350 350
336 344 349 349 348 346 344 349 352 350 346 344 341 342 337 326 327 328 331 332 331 330 329 327 326 326 328 330 331 331 336 331 328 327 329 340 340 345 347 348 348 347 348
326 328 345 347 347 344 345 345 341 340 335 331 330 328 326 323 322 325 328 329 327 325 323 322 320 319 320 316 313 320 315 325 323 322 326 335 336 339 340 340 342 342 343
326 326 335 345 344 343 341 342 339 335 329 327 325 324 321 322 322 318 316 316 311 319 310 312 308 306 305 307 307 308 309 316 316 318 325 331 333 335 335 334 335 337 339
325 327 328 341 342 341 338 338 336 333 329 324 322 321 313 313 313 312 311 309 306 307 307 304 303 304 303 301 299 300 301 308 311 313 320 326 327 329 330 330 331 332 333
323 325 327 327 339 338 335 335 331 328 328 322 318 316 313 311 310 311 308 308 306 304 302 302 302 301 299 299 299 299 298 302 308 309 309 320 321 322 323 324 326 327 328
323 324 328 328 328 331 332 332 329 323 324 316 312 312 311 310 308 306 305 305 304 303 302 302 301 300 299 299 300 300 299 299 304 306 307 309 317 316 317 318 319 321 323
318 321 328 329 329 326 328 329 327 322 317 310 309 309 310 309 307 306 304 304 303 303 302 301 299 299 299 300 298 298 300 299 299 304 306 307 310 316 314 314 314 316 317
310 312 319 331 331 330 324 328 327 322 314 311 309 308 308 310 308 306 305 304 304 303 301 300 299 298 298 298 297 297 298 299 299 299 303 305 305 307 312 312 311 311 312
309 310 312 314 319 329 328 323 326 323 315 311 310 309 307 310 310 306 305 305 305 303 301 302 300 299 298 298 299 298 297 298 299 300 299 302 302 303 305 311 311 310 312
307 308 309 312 312 315 323 322 319 318 313 311 310 310 308 308 309 307 306 305 304 302 301 301 300 299 299 299 303 299 295 297 298 298 298 301 302 303 302 302 301 303 312
307 307 307 308 310 311 312 312 317 316 316 311 310 311 310 309 309 307 306 305 304 303 302 301 299 298 298 297 296 296 297 297 296 297 298 298 299 301 301 302 301 301 302
304 306 306 306 308 308 310 310 313 318 315 316 313 310 311 310 309 307 307 305 303 302 301 301 299 298 298 297 294 293 291 295 294 296 297 298 296 299 299 301 299 300 299
302 304 305 305 306 308 308 309 311 312 315 312 310 309 309 310 309 309 307 306 304 304 303 301 299 298 297 297 296 294 290 290 292 294 294 296 295 296 296 297 298 298 298
302 304 304 304 305 309 309 308 305 305 307 313 313 314 311 309 309 310 308 307 306 305 302 303 302 299 297 296 295 297 294 293 289 289 293 294 295 296 295 296 297 297 297
301 302 304 303 304 306 306 307 307 304 305 309 314 312 312 308 309 309 308 307 306 305 305 303 301 300 299 297 295 294 292 292 290 290 288 291 294 294 295 295 295 295 296
299 300 301 302 303 304 304 305 306 306 304 304 307 311 310 311 308 308 308 308 307 306 304 304 302 300 299 298 297 295 294 293 291 290 289 289 290 292 293 294 294 296 296

GFSSE_sfc_thetae_030.txt.gz
Theta_e
346 354 361 360 359 361 359 360 360 361 360 360 360 359 359 360 360 359 359 359 359 359 358 360 360 359 359 358 358 358 358 358 358 358 358 358 359 359 358 357 356 350 353
350 356 362 360 359 360 359 359 358 359 358 358 358 357 357 357 358 359 359 358 359 359 358 357 359 358 358 357 357 357 356 356 357 357 357 358 356 357 357 357 357 350 352
352 355 359 362 359 359 359 358 357 356 356 355 356 355 354 354 356 356 357 358 357 357 357 356 357 357 358 357 356 356 356 355 355 355 355 349 352 356 356 355 355 353 352
352 356 357 362 360 359 358 357 355 354 354 353 352 352 352 351 353 353 352 354 356 357 356 356 355 356 357 356 356 356 356 357 356 354 348 348 350 355 355 355 354 353 353
350 355 355 363 362 361 358 356 354 352 352 350 348 348 348 349 350 349 349 351 351 352 354 356 356 355 357 356 356 356 357 356 355 351 348 346 346 352 353 353 354 351 351
348 353 359 364 361 361 358 355 353 350 348 347 347 346 345 346 347 345 345 348 347 348 348 349 352 354 356 355 355 357 357 355 351 346 344 348 347 352 352 351 350 350 350
348 352 359 362 360 360 358 355 352 349 348 348 346 345 344 343 344 344 342 343 345 346 346 346 348 351 356 354 354 354 354 351 343 342 343 342 345 352 352 350 349 349 349
350 354 357 362 362 360 358 355 352 350 347 346 345 344 343 342 341 341 340 339 340 342 343 344 347 352 354 353 352 353 352 350 342 340 342 342 347 349 350 350 349 348 348
351 353 354 357 359 361 359 356 353 351 348 345 344 344 343 341 340 340 339 338 338 338 339 341 345 347 348 348 348 349 349 345 335 335 339 342 351 351 350 349 350 348 348
350 352 354 355 354 352 351 357 353 351 348 345 344 344 342 340 338 338 337 336 336 336 337 336 338 343 344 343 341 340 343 339 332 333 334 338 347 347 349 350 350 350 349
345 348 351 350 349 348 346 349 353 350 347 345 343 343 339 327 328 330 331 334 333 333 332 331 331 332 332 334 332 332 338 328 327 329 332 342 341 341 347 347 347 348 348
339 343 348 347 346 345 348 345 344 343 338 335 333 331 327 323 323 326 329 331 331 329 328 327 324 322 322 314 312 321 325 323 323 325 329 338 336 336 336 341 342 343 344
334 340 346 345 345 343 343 342 340 337 333 330 329 326 324 322 321 321 317 318 312 320 310 311 309 305 306 307 307 308 320 318 317 320 329 336 336 335 335 335 337 338 340
324 330 343 346 344 342 341 342 340 336 332 328 326 325 321 317 317 314 313 311 307 308 305 304 301 302 301 302 299 300 311 313 313 315 322 330 332 333 332 331 332 333 335
324 326 331 344 343 341 338 340 338 336 333 330 324 322 317 314 314 311 309 307 304 303 303 301 300 300 297 297 297 297 302 309 309 310 311 324 326 326 326 326 327 328 328
312 315 324 338 341 340 337 337 335 334 332 327 323 320 316 315 313 310 307 307 305 302 301 300 299 298 297 296 297 298 297 305 306 306 307 310 319 319 319 319 320 322 324
308 310 311 322 332 336 336 336 333 331 329 323 320 318 315 314 311 310 307 304 303 302 301 299 298 297 297 298 296 296 298 297 303 304 305 306 310 317 315 314 314 317 318
306 307 310 313 312 322 325 329 331 328 325 322 317 315 313 312 311 306 306 304 303 302 301 299 297 297 296 296 295 296 296 297 296 302 304 305 305 307 313 313 312 312 313
305 305 307 309 310 311 318 321 321 322 316 316 312 311 310 311 310 307 306 305 304 302 300 299 298 297 296 296 297 296 296 296 296 299 301 303 303 305 305 313 313 312 313
303 304 305 306 308 310 311 311 315 317 317 312 310 310 309 310 310 307 306 305 303 301 300 298 298 298 297 297 301 299 294 295 296 295 297 301 301 302 303 301 302 303 313
302 302 301 304 304 308 309 309 309 309 317 316 312 311 309 308 309 307 306 304 303 303 301 299 298 297 297 296 295 295 295 295 294 295 295 297 299 300 300 300 300 299 301
299 300 302 301 304 305 306 306 305 305 311 314 315 311 311 309 308 308 307 306 304 302 300 299 298 296 296 296 294 291 291 293 293 294 294 296 296 299 299 300 299 299 299
298 298 301 301 303 304 304 305 306 306 307 308 310 313 312 309 310 310 307 307 305 304 303 301 299 298 296 296 294 293 288 289 291 292 292 294 294 295 297 297 298 297 297
297 298 300 301 301 304 303 302 302 302 302 303 305 310 312 310 308 309 309 308 306 305 303 302 301 298 297 295 295 296 292 292 290 290 292 292 292 294 293 295 296 296 296
297 297 298 299 300 302 301 300 300 299 302 303 303 303 305 310 310 310 309 307 307 307 305 304 301 298 297 296 295 292 290 290 289 288 288 290 292 293 293 294 294 294 295
296 296 297 298 298 300 299 299 298 297 300 300 301 301 303 305 309 308 308 308 307 306 306 303 303 302 301 297 295 294 293 292 290 289 287 288 290 292 292 293 293 294 295

GFSSE_sfc_thetae_033.txt.gz
Theta_e
344 351 360 359 358 360 361 362 362 361 360 360 359 359 358 357 357 358 359 359 359 357 359 359 359 359 357 357 356 358 357 357 359 359 358 359 359 358 357 356 353 348 352
347 355 362 360 359 360 361 360 359 359 359 358 357 357 356 357 358 357 358 358 358 357 357 359 358 358 356 356 357 356 356 357 357 357 356 355 357 357 356 354 353 350 352
349 355 358 360 358 359 359 359 358 358 357 357 356 355 354 355 355 356 356 354 355 357 356 357 357 357 356 356 356 356 356 356 356 355 355 349 351 356 355 354 353 352 352
352 354 356 360 359 359 358 357 356 356 355 355 354 353 352 352 352 352 354 355 355 356 355 355 356 357 355 356 356 356 356 355 355 353 347 348 350 354 354 353 352 352 352
350 355 356 361 359 359 358 356 355 354 353 352 350 350 349 350 351 349 352 350 351 356 356 355 354 356 356 356 356 356 357 356 354 350 346 345 346 351 353 352 351 351 351
349 353 357 361 358 357 354 355 354 353 351 348 346 345 345 347 347 345 348 350 348 346 348 351 353 355 355 355 358 356 357 356 351 345 345 349 345 352 352 351 350 350 350
347 351 355 361 360 360 356 355 353 350 348 346 346 344 344 344 344 342 343 345 345 345 345 345 347 354 354 354 354 356 355 350 341 340 340 341 345 352 351 350 349 349 350
347 350 356 362 363 361 357 354 353 348 347 346 345 344 342 342 342 340 339 341 342 343 343 343 345 351 353 353 352 355 352 348 342 339 340 340 348 349 350 349 348 348 348
349 351 354 356 358 361 360 357 353 351 347 346 344 343 342 340 339 339 338 337 337 339 340 342 344 348 353 350 350 352 349 344 334 335 340 341 350 350 349 349 349 348 348
347 350 350 353 355 354 353 358 354 351 349 345 345 343 342 340 338 338 337 335 335 335 336 337 342 345 346 344 344 341 345 340 331 332 333 339 345 346 350 350 350 349 348
346 346 349 352 351 350 348 352 354 351 350 346 345 344 339 328 327 330 332 334 333 333 333 333 334 337 336 334 333 334 337 328 329 330 332 343 341 340 345 347 347 348 347
340 344 351 351 348 346 349 346 344 343 339 337 336 332 328 324 323 327 329 332 331 331 330 328 327 325 322 314 311 329 326 325 325 327 330 338 335 334 335 341 343 344 345
336 342 348 347 347 345 345 344 344 338 337 334 332 329 325 323 321 323 319 318 313 320 310 311 308 305 307 308 307 314 321 319 319 322 331 336 335 333 333 335 339 339 341
322 331 342 346 344 344 344 343 343 338 337 333 331 328 324 319 318 317 315 313 309 308 304 303 301 301 300 302 301 308 314 314 315 317 323 332 334 333 332 332 333 333 337
307 309 319 342 342 341 340 340 341 339 337 334 330 327 325 320 318 316 313 310 306 303 304 301 299 299 296 296 296 300 310 310 310 312 312 327 329 330 328 327 328 329 329
304 307 310 319 342 341 339 336 336 336 335 332 329 327 324 320 317 316 311 307 305 302 301 300 299 297 296 295 296 296 303 306 307 307 307 311 322 323 321 320 322 323 325
302 305 308 311 317 332 335 334 334 332 332 328 326 322 320 318 316 315 311 305 305 303 301 299 297 296 295 296 294 295 297 303 304 303 305 306 310 319 317 316 317 318 319
301 302 306 310 309 310 315 326 331 329 326 325 320 317 317 316 314 312 311 308 305 303 301 299 297 296 295 294 294 294 294 295 298 301 303 304 305 307 313 314 314 314 315
301 300 303 305 306 307 307 310 315 318 321 320 316 313 315 315 313 311 310 309 305 302 300 299 296 296 295 295 295 295 294 294 295 299 301 303 303 306 305 313 314 313 314
300 300 301 303 304 305 306 307 308 310 313 311 309 311 311 311 312 310 306 305 304 302 300 298 297 295 296 296 299 298 294 294 294 294 297 301 301 303 303 302 302 305 314
298 298 299 302 302 304 305 304 304 304 307 310 311 310 309 307 310 307 307 305 303 303 302 299 297 296 295 295 295 294 294 294 292 294 294 295 298 300 300 301 299 299 300
296 296 297 299 301 302 302 302 302 302 306 310 311 313 313 311 307 307 306 305 305 303 301 299 298 295 296 295 294 291 291 292 293 293 293 294 295 297 298 299 298 298 298
295 295 297 298 299 301 301 302 302 301 302 303 304 308 309 312 311 309 307 307 305 306 304 301 300 298 296 294 294 294 288 288 289 291 291 293 294 294 296 297 298 298 297
295 295 296 297 298 302 299 299 298 298 298 301 301 303 304 307 308 311 308 307 307 304 305 304 303 302 298 296 294 295 291 291 290 289 291 291 292 293 293 295 296 296 295
295 294 295 296 297 298 297 296 296 295 297 300 301 301 302 303 305 307 307 305 307 305 305 306 303 301 302 297 295 291 289 289 288 288 288 290 291 291 292 293 294 294 294
295 294 295 295 296 297 296 296 294 293 294 296 299 299 300 301 302 304 306 305 305 305 305 305 304 302 302 302 298 294 293 291 289 289 286 287 289 291 291 292 292 292 293

GFSSE_sfc_thetae_036.txt.gz
Theta_e
342 347 359 361 359 358 359 360 362 360 360 359 359 360 356 353 356 358 358 359 357 359 359 359 360 357 357 356 356 358 359 360 360 360 359 360 360 357 356 354 353 349 350
345 351 359 358 359 358 358 362 358 357 359 356 354 353 354 353 353 357 358 357 357 357 359 358 358 356 355 355 355 357 357 358 357 357 357 358 357 357 354 354 354 350 350
347 354 355 358 359 358 358 357 356 356 356 355 354 352 353 353 356 356 353 353 357 356 357 357 357 355 356 356 356 356 357 356 356 355 355 350 352 355 354 353 354 353 351
351 354 354 358 360 358 356 356 355 355 355 355 353 351 351 350 350 349 354 355 353 356 355 356 357 355 356 356 356 356 356 355 355 354 348 349 350 354 353 352 352 351 351
351 354 354 357 358 359 355 354 355 354 354 353 352 350 347 348 349 347 350 348 351 355 355 354 355 355 356 355 357 356 356 356 354 349 346 346 348 351 352 352 351 351 350
348 351 356 360 359 357 355 353 354 353 352 350 347 345 344 346 346 346 348 345 346 347 349 350 353 355 355 355 357 357 358 355 350 345 346 349 347 352 352 351 350 350 349
347 350 355 359 359 358 357 354 354 352 350 346 344 342 342 343 342 340 343 345 344 344 344 344 348 353 353 354 355 357 355 351 341 341 341 343 347 351 351 350 349 349 350
347 350 353 360 359 359 356 354 354 351 348 346 345 342 341 341 341 339 338 340 341 342 343 343 346 350 353 352 351 355 351 348 341 339 339 340 349 349 350 349 348 347 348
347 348 351 354 359 362 359 354 354 351 348 347 345 343 341 339 339 338 337 336 337 338 339 341 342 350 352 351 352 352 349 344 335 337 341 340 350 349 348 349 348 348 348
344 348 348 351 353 353 352 358 355 352 348 347 345 343 342 339 338 337 336 334 334 334 334 336 340 346 347 346 345 343 345 340 332 333 335 340 346 347 349 349 348 349 349
343 342 345 348 349 350 349 352 356 354 351 348 346 345 340 329 326 328 333 333 333 332 332 332 334 339 337 331 336 337 335 329 330 330 332 343 340 341 344 346 347 347 347
336 343 345 348 350 346 351 347 346 344 343 339 337 335 329 326 324 327 329 332 332 330 330 329 328 326 320 313 312 331 328 326 327 328 331 338 336 336 337 339 342 344 346
317 338 346 349 349 348 347 342 341 339 337 335 333 330 327 325 324 325 320 318 315 319 311 310 307 304 305 308 307 319 322 321 321 324 331 336 335 333 333 335 338 341 343
305 307 314 343 348 347 345 341 340 337 335 332 330 327 323 320 318 319 318 315 312 308 305 304 301 300 300 301 301 314 316 316 317 319 323 333 334 333 332 332 334 335 339
303 306 308 310 341 346 344 338 339 340 336 332 329 327 324 320 317 316 315 313 310 305 304 301 300 298 297 295 297 304 311 311 312 314 315 328 331 331 331 329 330 330 331
300 303 307 309 325 343 340 336 336 339 337 333 328 327 325 322 317 316 314 311 307 303 303 302 299 297 296 294 295 296 306 308 309 309 309 311 325 327 326 324 324 325 327
299 301 305 309 308 311 326 337 336 333 334 330 328 326 325 322 318 317 314 310 306 303 301 299 297 296 295 295 293 294 297 305 305 305 306 307 311 322 320 319 320 321 321
298 299 303 306 306 306 306 312 327 332 331 328 326 324 324 324 321 318 315 315 309 304 302 299 297 296 295 294 293 294 294 295 301 302 303 304 306 308 315 317 316 317 318
298 298 301 302 303 304 304 306 308 310 314 317 318 318 319 321 320 319 315 314 310 307 302 299 297 296 295 294 295 294 293 293 294 298 300 302 304 307 305 314 316 315 315
296 297 298 300 301 302 302 303 305 306 308 309 309 308 310 314 316 312 311 309 309 304 302 299 298 296 296 295 298 297 294 294 294 294 295 301 302 304 304 304 305 307 316
295 295 295 299 299 300 300 300 300 301 304 306 308 310 309 308 308 311 310 306 304 305 305 302 297 296 295 295 294 294 294 294 293 293 294 295 299 301 301 302 301 301 302
293 294 295 296 299 299 299 299 299 299 302 304 305 306 308 311 311 308 309 310 305 303 301 300 300 297 296 296 294 291 292 293 292 293 292 293 294 298 299 299 299 299 299
293 293 295 296 298 298 298 299 299 298 298 300 301 302 303 305 307 308 308 308 307 303 303 300 299 298 300 296 297 296 289 289 289 291 291 292 293 293 296 297 298 298 298
294 294 294 295 296 299 296 296 294 294 293 297 298 301 301 303 303 304 305 305 304 304 302 303 302 301 298 298 296 297 292 291 290 290 291 291 291 293 293 295 297 297 297
294 293 293 294 295 296 295 294 293 292 293 295 297 298 300 300 301 303 303 303 303 302 303 305 302 300 300 301 296 293 293 290 288 290 289 290 291 291 293 293 295 295 295
293 293 294 293 295 295 294 294 293 292 292 293 295 297 299 299 300 301 303 302 302 301 301 302 303 300 302 301 299 296 293 294 290 289 287 288 290 291 291 292 292 293 295

GFSSE_sfc_thetae_039.txt.gz
Theta_e
349 353 358 359 358 359 359 359 361 358 358 359 359 357 352 353 357 358 359 357 359 359 359 359 358 357 358 356 357 359 360 360 360 361 360 361 359 355 355 354 354 347 349
351 354 359 360 358 357 359 360 359 356 359 356 353 352 351 350 354 358 357 358 357 358 359 359 356 354 355 354 355 357 357 358 359 358 358 359 357 356 355 354 355 350 349
350 356 356 358 359 357 357 357 357 355 354 352 351 349 352 354 356 352 352 355 357 356 358 358 355 354 355 355 356 357 357 357 356 356 355 355 354 355 354 354 354 352 349
351 355 355 358 358 357 357 357 354 354 354 355 350 348 350 350 351 349 354 352 354 356 356 357 356 355 357 356 356 356 356 356 355 354 352 352 352 354 353 353 352 352 350
352 356 356 356 358 357 356 354 353 354 353 353 351 350 347 348 346 348 351 348 353 354 354 354 355 354 356 355 355 355 355 355 353 353 354 355 354 352 353 352 351 351 349
353 357 358 357 357 358 356 354 352 354 352 351 348 345 344 346 346 347 348 345 347 348 350 351 353 354 355 355 354 354 355 354 351 353 354 353 353 352 352 351 351 350 348
352 356 356 360 358 358 358 354 352 353 351 348 344 342 342 343 343 341 342 344 344 344 344 348 349 353 354 354 354 355 354 351 351 351 351 352 352 350 351 349 349 349 349
351 354 356 360 360 359 356 355 353 352 350 346 345 343 341 341 341 339 338 341 342 340 342 344 346 348 352 351 353 354 351 348 346 346 347 350 350 349 349 348 348 347 349
351 352 354 356 358 360 359 357 354 353 350 347 346 344 342 340 340 338 337 336 337 337 337 340 342 350 352 352 353 351 348 345 345 346 346 349 350 349 348 349 348 348 348
349 351 352 357 357 358 357 358 356 354 350 349 347 345 343 341 339 338 337 335 334 334 334 335 339 345 344 343 342 348 345 341 343 344 347 345 345 348 349 349 348 349 348
347 350 352 354 357 357 357 355 356 355 352 350 348 347 343 340 339 338 337 335 334 333 333 332 334 338 334 334 337 343 337 342 340 341 343 341 339 341 341 344 346 347 347
318 340 351 352 354 355 355 355 355 354 352 350 345 344 343 340 338 335 336 335 334 332 331 330 329 325 324 330 329 332 336 334 336 339 341 337 336 337 337 339 341 343 346
311 314 316 334 353 351 352 353 354 353 351 349 346 343 341 338 336 336 334 333 333 329 329 326 323 320 317 322 324 331 335 336 336 338 338 336 335 334 334 334 335 340 344
310 311 314 317 319 348 350 349 352 351 350 347 345 342 339 337 334 332 331 330 328 326 323 322 320 316 314 314 317 322 331 333 334 335 335 333 334 333 332 332 334 336 338
307 310 312 316 329 337 347 347 346 349 349 347 344 342 339 337 334 332 329 328 326 323 319 316 315 312 311 310 310 314 324 328 328 329 330 328 331 333 331 332 333 332 332
307 307 311 312 315 326 339 342 341 344 343 341 343 342 339 336 334 332 329 327 325 321 317 315 313 312 310 309 308 309 316 322 324 324 324 326 328 330 331 329 328 329 330
306 308 308 310 312 314 316 324 337 338 339 338 338 341 340 338 335 329 326 326 324 321 315 313 311 310 309 307 307 307 308 315 319 319 319 319 321 325 325 324 323 325 327
305 306 308 309 309 310 313 315 316 317 323 325 330 331 331 331 332 331 330 326 325 321 316 311 311 309 309 307 307 306 306 308 313 315 315 315 317 318 321 320 319 321 323
303 305 306 308 307 308 309 311 312 314 314 316 316 317 321 326 328 326 328 330 326 322 318 313 310 309 309 308 307 307 306 306 307 308 312 313 315 317 317 318 318 318 319
302 303 305 307 306 308 309 309 310 310 311 313 314 314 315 316 317 322 325 324 324 321 318 314 311 308 309 309 306 306 307 306 307 306 307 310 312 315 316 316 317 317 317
301 302 303 305 306 306 307 306 307 306 308 310 311 312 313 313 313 315 316 318 319 318 319 317 312 309 308 306 306 307 306 306 306 306 307 307 309 311 313 314 314 315 315
300 300 302 303 305 305 306 306 307 306 308 308 310 310 312 311 312 311 313 314 315 315 315 314 312 310 308 306 305 305 304 306 305 306 306 305 306 308 310 311 311 311 312
301 300 300 302 303 304 304 305 305 306 306 306 307 308 309 310 310 311 311 312 312 312 312 313 312 311 310 307 305 306 301 302 304 304 303 304 304 305 307 309 309 310 310
301 301 301 301 301 303 303 303 302 301 300 303 304 306 307 310 309 309 310 311 312 311 311 311 311 310 307 308 305 304 305 304 304 304 303 303 304 304 305 307 308 308 309
300 300 300 300 301 302 302 302 301 300 301 302 303 304 307 309 309 308 308 309 310 310 310 310 310 309 309 307 307 307 304 302 301 302 303 304 301 303 305 305 306 307 308
300 300 301 300 301 302 302 302 301 300 300 300 301 302 304 306 306 305 307 307 308 310 309 309 310 310 307 308 307 306 305 303 301 301 301 305 304 305 304 304 305 306 307

GFSSE_sfc_thetae_042.txt.gz
Theta_e
348 353 359 359 359 361 359 358 359 356 358 360 358 354 353 352 356 358 357 358 358 359 360 358 357 358 357 358 359 359 358 359 359 360 358 358 356 355 354 353 355 347 349
349 352 360 359 358 358 358 358 358 359 357 354 352 352 353 353 355 355 356 356 357 357 359 357 356 356 355 356 356 357 358 358 359 358 356 357 357 356 355 354 355 349 348
349 352 357 359 358 357 356 360 355 355 355 352 349 349 353 354 353 353 353 356 356 357 358 355 355 354 355 354 357 357 357 357 357 355 354 352 354 355 355 354 353 350 348
349 352 355 358 359 358 356 355 355 351 351 354 350 347 350 351 350 350 352 351 355 355 356 356 354 356 357 356 356 356 356 356 354 352 352 350 351 353 354 353 353 351 349
350 352 355 359 355 358 356 356 352 353 353 353 351 350 347 347 346 349 351 348 351 354 354 354 356 355 355 354 354 355 355 354 352 353 353 354 353 353 353 351 352 350 349
351 353 357 359 357 356 355 352 351 353 352 351 349 344 345 347 346 347 346 346 348 349 349 351 352 355 355 354 354 354 354 352 354 352 353 351 353 352 351 351 351 350 348
349 351 355 358 357 357 356 353 352 353 352 350 345 342 344 344 342 342 342 342 343 343 344 347 350 351 354 354 353 354 353 350 351 349 347 349 352 350 349 349 349 349 348
348 350 351 358 358 358 355 354 352 352 351 347 344 342 342 343 342 339 339 341 342 340 340 343 346 352 351 352 352 354 351 350 348 348 347 346 349 349 348 348 348 348 348
349 350 351 353 357 359 357 355 352 352 351 347 345 343 341 340 340 339 337 337 338 338 337 340 341 349 350 352 353 352 348 345 347 347 344 344 348 349 348 347 347 347 348
350 351 352 355 355 355 353 358 354 353 352 349 347 345 342 340 339 338 337 336 335 335 335 336 338 343 342 343 348 349 344 341 346 347 347 344 343 346 348 349 349 348 348
347 351 352 351 353 356 356 356 355 355 353 350 349 347 344 342 340 338 339 335 335 335 334 334 335 337 334 337 341 344 341 346 345 344 344 340 337 340 341 344 345 346 347
328 332 340 351 352 354 355 355 355 354 353 351 348 346 345 343 339 336 336 336 335 334 333 333 332 330 331 340 340 337 342 343 339 340 343 338 336 337 337 338 340 343 345
321 323 324 329 339 343 353 354 355 354 353 351 349 348 346 343 341 338 335 335 334 333 332 330 329 327 325 329 332 334 337 339 339 340 341 337 336 336 334 334 335 340 343
318 320 322 327 333 336 348 352 351 354 354 352 350 348 347 345 342 338 335 331 331 330 327 326 325 324 322 322 323 328 333 336 337 338 339 334 335 335 333 332 333 335 338
314 317 319 323 328 338 343 349 349 348 348 353 351 350 348 345 344 341 337 333 330 329 326 322 321 320 319 317 318 319 325 330 333 335 336 331 332 334 333 332 333 335 333
311 312 315 317 321 326 332 342 342 343 343 343 343 346 348 348 345 343 341 337 332 329 327 322 319 317 316 315 315 315 317 322 326 329 329 330 329 331 332 332 331 333 333
309 310 310 311 314 317 320 323 325 329 333 333 335 336 335 335 338 340 339 339 337 332 327 323 319 317 316 315 314 314 314 317 320 322 325 325 325 327 328 328 327 328 330
308 308 309 309 309 310 312 314 317 318 320 322 323 325 328 331 332 333 334 335 338 332 328 324 320 317 316 315 314 313 313 313 316 318 319 320 320 319 324 325 324 324 327
308 308 308 309 309 309 310 311 311 312 313 314 316 317 318 320 321 325 331 333 333 332 332 326 323 319 316 316 314 314 313 313 313 314 316 318 319 319 319 323 322 321 322
306 307 308 309 309 309 310 310 310 310 311 311 312 312 313 314 315 317 320 323 328 328 327 330 326 323 318 317 314 312 313 313 313 313 313 314 316 318 319 319 320 319 320
306 306 307 307 308 308 308 307 307 307 308 308 310 310 311 313 313 314 314 316 319 322 325 325 327 323 320 318 313 313 313 314 313 312 313 313 314 315 317 318 318 317 318
305 305 306 306 307 308 308 308 308 307 308 309 310 310 310 311 312 312 312 313 314 315 318 320 319 321 321 319 311 311 310 313 313 313 313 312 312 313 314 315 316 316 316
305 306 305 306 306 307 308 308 308 307 307 306 307 308 309 310 311 312 312 311 312 313 313 315 318 316 312 317 315 311 307 308 316 315 313 312 312 311 312 314 314 314 314
306 306 306 306 306 306 307 306 305 304 303 305 306 307 308 309 309 311 310 310 310 311 311 312 313 315 314 310 315 313 311 312 310 310 311 311 311 310 311 312 313 313 313
306 306 307 306 306 306 306 306 305 305 305 306 306 306 307 308 308 308 308 307 307 308 309 310 311 311 313 311 309 311 310 307 309 305 308 309 309 310 311 312 312 312 313
306 307 307 306 305 305 305 304 304 303 303 304 305 305 305 306 307 308 308 307 307 307 307 308 310 311 310 311 311 309 308 308 307 303 303 308 312 312 311 311 311 311 312

GFSSE_sfc_thetae_045.txt.gz
Theta_e
346 354 359 359 360 360 357 359 357 357 360 357 355 354 355 354 358 358 357 358 359 358 358 357 358 359 358 358 358 359 358 358 359 358 356 356 356 355 355 357 353 346 349
347 351 360 359 358 359 357 357 357 359 356 353 351 353 355 357 354 355 357 357 357 357 357 356 356 356 357 357 358 358 358 359 357 355 357 356 357 356 355 353 354 347 348
345 352 356 358 356 356 358 358 355 356 353 351 350 351 352 353 352 355 354 355 356 357 357 355 355 356 354 357 358 357 357 356 355 355 357 354 353 355 354 354 352 350 348
345 350 355 358 359 356 358 356 354 348 351 352 347 349 349 350 349 352 350 355 356 355 356 356 356 357 356 357 356 356 356 354 351 353 353 350 350 354 353 354 352 351 349
345 348 357 359 359 358 356 354 349 349 352 353 347 349 345 346 346 350 350 351 351 352 353 353 355 355 355 355 355 355 354 352 353 353 352 353 354 353 352 353 352 350 349
345 348 357 358 358 353 351 350 349 353 352 351 349 344 345 346 345 348 346 347 346 349 348 350 352 354 355 354 353 353 352 351 354 347 352 351 352 352 351 351 351 350 349
345 348 351 355 354 353 352 351 350 351 351 349 345 342 343 344 341 344 344 343 344 344 345 347 350 351 353 353 353 353 352 351 350 345 343 347 350 350 349 350 350 349 348
345 346 351 356 355 355 353 352 350 351 351 348 344 342 342 342 341 339 340 343 343 342 341 343 346 353 351 351 352 352 350 350 347 342 342 344 349 348 348 347 348 348 348
346 346 347 351 357 359 357 355 352 352 352 348 345 344 342 341 341 339 337 337 338 339 339 340 342 348 350 352 353 352 347 347 345 343 341 344 352 349 348 347 346 347 348
347 348 346 346 349 355 355 359 355 353 353 350 348 347 344 342 341 340 339 337 335 336 336 336 340 342 343 344 352 349 344 344 343 343 342 343 346 345 348 350 349 348 347
344 347 347 345 346 351 353 355 357 355 355 352 350 349 346 343 342 341 342 338 335 336 335 335 335 338 336 340 346 346 345 345 344 340 340 345 340 340 341 344 345 347 348
329 331 333 336 341 349 350 352 352 353 353 352 349 348 347 342 342 337 338 337 337 336 335 335 334 334 335 336 342 343 339 341 343 341 340 344 339 337 338 338 341 343 345
324 326 327 330 335 338 349 354 358 354 356 352 350 348 346 344 342 340 337 337 337 336 333 334 332 329 325 327 329 330 332 335 337 338 340 341 338 338 337 335 336 340 343
319 320 322 326 330 339 340 352 352 350 351 352 351 349 347 346 344 342 338 336 333 331 329 327 325 326 325 323 322 325 327 331 333 335 338 341 339 338 337 334 333 337 339
313 315 317 320 324 330 337 344 346 344 345 345 345 346 345 348 346 344 343 339 336 332 329 326 323 321 321 319 318 318 320 325 330 332 337 339 337 337 337 334 332 334 336
311 311 312 312 315 320 322 326 329 334 340 340 339 339 339 338 341 342 344 344 341 337 332 328 323 320 319 318 317 316 316 319 324 328 330 334 334 334 334 334 333 333 335
310 310 309 310 311 311 312 315 317 319 322 324 326 329 330 335 335 335 336 338 340 340 337 331 326 322 319 318 316 316 316 315 319 322 326 328 330 333 332 333 332 331 332
310 309 310 310 311 311 311 312 312 313 313 314 315 318 319 321 322 325 333 334 336 336 336 333 328 323 321 319 316 316 315 315 314 317 322 324 325 323 329 330 329 328 328
309 309 310 310 310 310 311 311 311 311 312 312 312 313 312 314 315 316 319 323 331 334 331 330 332 328 322 321 319 318 317 316 314 314 316 321 324 323 322 328 328 327 326
308 308 309 309 309 310 310 310 310 310 310 311 310 311 311 311 313 314 315 316 318 321 328 329 326 327 328 322 318 317 317 317 316 315 314 316 319 321 322 324 324 322 323
306 307 308 307 308 308 308 307 307 307 308 309 310 310 310 311 311 312 313 313 315 315 316 320 324 324 321 327 320 317 318 317 315 315 315 315 316 318 319 320 321 320 319
307 307 307 307 307 307 308 308 307 307 307 309 311 310 310 309 309 309 310 312 312 313 314 315 317 318 319 320 319 317 310 315 316 315 315 314 313 315 316 317 318 318 319
307 307 307 307 307 307 308 308 307 308 308 308 309 309 310 309 309 309 309 310 310 312 312 314 315 316 315 320 317 313 308 306 315 318 316 315 314 314 314 315 316 317 316
307 308 307 307 307 307 307 306 305 305 304 306 307 309 308 308 308 308 308 309 309 309 309 310 310 312 314 312 315 315 312 311 307 309 316 315 315 314 314 315 314 315 315
306 307 307 307 307 306 306 306 306 304 305 306 306 306 307 308 309 309 308 308 309 308 308 308 308 308 310 309 312 312 313 310 309 306 302 311 311 313 314 313 314 314 314
306 307 308 306 305 305 305 304 305 305 303 303 304 304 305 307 308 307 308 308 309 309 308 308 309 309 308 309 310 311 311 309 305 305 304 305 306 309 312 313 313 314 315

GFSSE_sfc_thetae_048.txt.gz
Theta_e
348 352 362 359 362 358 358 358 359 358 357 355 354 357 358 356 356 358 358 358 358 359 358 358 358 359 358 358 359 359 359 359 357 357 356 358 357 355 353 353 350 345 347
348 352 362 359 363 359 358 358 358 357 354 352 352 353 355 355 356 357 357 357 358 358 356 357 357 356 358 359 359 359 359 357 355 356 356 355 356 355 354 352 351 346 347
346 352 356 361 359 356 358 357 354 356 353 351 349 351 350 353 352 354 356 357 356 358 357 357 358 357 357 357 358 357 356 355 355 355 356 349 352 355 354 352 351 350 347
347 348 353 360 360 359 359 359 355 354 355 354 351 351 347 349 349 353 352 355 355 355 356 356 357 357 357 357 356 356 354 351 351 355 352 350 350 354 354 353 352 350 347
342 352 354 360 358 359 358 356 354 351 354 354 352 349 345 347 348 351 350 350 351 351 353 354 355 356 355 356 356 354 352 352 355 353 349 348 347 351 354 353 351 350 348
343 353 358 359 357 357 356 353 351 351 352 352 349 344 345 347 344 348 348 347 346 348 348 350 352 353 355 355 354 353 352 352 355 345 348 351 348 352 352 352 351 350 348
345 349 353 358 356 354 353 352 350 348 352 350 345 343 343 343 343 343 344 345 345 344 345 346 349 354 351 352 355 353 352 353 349 339 343 345 347 351 350 351 351 349 349
339 348 349 358 358 357 355 352 352 351 352 349 344 342 341 342 341 340 338 340 342 343 342 342 346 350 352 351 355 353 351 352 346 339 338 343 350 349 349 348 349 350 348
341 341 347 349 355 361 359 357 355 352 353 349 345 344 342 341 341 340 338 336 336 337 337 338 341 346 349 351 353 352 349 350 342 340 341 345 353 350 348 347 347 348 349
341 340 340 350 352 351 353 359 358 355 353 351 349 348 346 344 343 342 340 338 335 335 336 335 338 341 342 345 352 350 347 347 338 338 337 343 350 348 351 350 349 349 348
331 330 329 330 336 346 349 354 355 356 356 356 353 352 349 340 339 340 342 342 337 335 336 336 335 338 339 340 347 350 348 340 340 338 337 347 347 344 344 345 346 348 348
321 322 323 325 329 332 348 350 349 352 348 348 348 346 344 341 337 337 340 340 338 336 337 337 336 335 336 331 337 347 337 334 336 336 337 346 343 342 340 339 342 344 346
316 317 319 321 326 334 337 350 349 348 347 348 348 346 345 346 339 333 333 332 331 336 330 332 330 326 321 322 322 338 334 328 332 335 339 345 342 341 340 337 338 341 343
311 312 314 317 322 329 339 343 343 343 344 344 343 343 341 341 341 342 340 332 330 328 328 323 323 323 321 318 314 314 319 321 327 328 337 345 343 342 341 338 336 339 342
305 306 306 308 312 316 320 327 334 339 340 341 340 340 339 337 338 339 339 340 339 328 324 321 319 316 315 315 313 312 310 312 322 325 334 343 343 341 340 339 336 336 339
303 303 305 305 305 306 307 311 314 314 322 332 332 332 336 335 334 335 335 336 337 337 336 329 321 317 313 312 311 310 308 308 311 320 331 334 341 340 340 339 336 335 336
302 304 304 305 306 304 305 307 308 308 310 310 311 313 313 318 321 327 330 332 335 335 334 334 331 324 316 314 310 309 308 308 308 312 320 328 332 338 337 337 336 334 335
302 303 305 308 305 304 304 305 305 306 306 306 307 308 308 308 309 309 311 321 330 330 330 331 331 328 323 314 311 310 308 308 307 307 313 318 323 326 333 336 334 334 333
302 302 303 304 303 304 304 304 304 305 305 304 304 305 305 308 308 307 308 308 311 323 325 325 326 326 326 324 316 313 312 308 307 309 307 314 316 316 320 332 334 333 331
301 302 302 303 302 303 303 303 303 303 303 304 304 304 305 305 305 305 307 307 307 308 311 321 320 322 324 324 325 321 313 312 309 306 306 310 314 314 314 317 323 324 330
301 301 301 301 301 301 301 300 300 300 301 302 303 304 304 305 305 303 304 306 306 306 306 308 310 315 315 318 319 321 318 317 311 307 308 307 308 313 312 312 317 315 318
301 301 301 301 301 301 301 301 300 299 301 302 304 304 305 304 304 304 301 303 304 304 304 304 305 307 310 314 311 315 311 313 315 315 307 308 307 310 312 312 313 313 311
301 301 302 301 301 302 302 301 301 301 301 300 301 302 303 304 304 303 302 302 301 302 302 303 303 303 303 309 313 310 307 304 306 315 314 309 307 308 310 311 312 311 310
300 302 302 301 301 303 301 300 298 297 296 298 299 300 301 302 302 303 302 302 301 302 300 300 302 300 301 301 307 313 310 310 305 304 311 311 313 308 307 307 311 311 311
300 300 302 302 302 301 300 299 298 297 298 298 298 298 299 300 301 302 302 302 300 300 301 300 299 299 299 298 299 302 306 306 307 307 305 308 311 311 307 307 309 309 308
301 302 302 301 300 300 300 299 297 296 296 296 296 297 298 298 299 301 302 301 300 300 301 301 300 299 299 299 299 300 302 303 301 301 303 305 306 310 311 311 308 307 307

GFSSE_sfc_thetae_051.txt.gz
Theta_e
346 353 360 362 358 359 360 360 358 357 355 354 355 357 355 356 358 358 358 359 358 357 360 359 359 359 359 360 359 359 359 357 357 357 357 357 357 353 352 350 348 343 348
349 355 360 362 360 358 360 359 357 354 353 352 352 352 355 354 356 356 357 358 358 357 358 356 355 358 359 359 359 359 357 355 356 355 355 356 356 354 352 351 349 344 347
351 355 356 362 358 358 357 355 354 354 352 350 350 348 349 351 353 355 356 356 357 357 357 358 356 357 357 358 357 356 356 356 355 354 354 350 351 354 353 351 350 348 346
351 353 354 359 358 360 356 354 351 353 355 351 351 347 345 348 351 351 353 354 354 355 356 356 356 356 356 356 356 354 353 352 351 355 351 350 349 354 353 353 350 347 346
347 351 355 361 358 359 358 354 353 351 353 353 351 344 345 346 348 349 350 349 350 351 352 354 355 356 355 355 354 353 352 351 355 353 347 346 346 352 353 351 350 348 345
348 352 359 360 359 359 357 353 352 351 352 350 347 343 343 344 343 348 348 347 346 347 348 349 351 353 354 353 353 352 352 353 353 347 346 350 346 352 352 351 350 349 346
348 352 353 359 357 356 355 353 351 352 352 349 344 342 342 342 341 340 342 343 343 344 344 345 348 353 351 352 353 353 352 353 346 343 344 344 346 352 351 351 350 349 347
345 349 353 359 360 359 356 354 353 352 353 349 345 342 341 341 341 339 337 337 338 340 340 339 345 348 352 351 353 352 352 352 344 339 342 342 351 349 349 349 349 349 348
344 344 348 352 356 361 359 358 356 351 353 349 345 344 343 341 341 340 337 335 335 335 335 335 340 345 348 351 352 352 351 351 342 337 344 344 351 348 348 347 348 348 348
326 325 344 348 351 352 350 356 357 354 353 351 349 348 348 346 344 343 341 339 336 335 335 334 336 341 341 345 351 351 349 348 338 336 340 346 353 351 350 349 348 349 349
322 320 319 323 339 348 350 352 354 355 355 355 352 353 351 342 338 340 341 343 342 337 335 335 335 336 340 340 344 350 350 339 338 337 339 350 349 349 349 348 347 349 348
312 314 315 319 336 338 350 346 345 348 346 345 345 344 344 343 339 341 342 346 342 339 338 338 337 336 335 330 330 341 342 336 332 334 336 347 347 345 344 344 345 346 347
307 307 310 316 324 342 343 342 342 342 342 343 342 341 343 343 343 338 332 333 330 337 329 332 331 329 323 321 324 329 337 333 328 331 339 346 347 345 343 341 341 343 345
303 302 304 307 313 317 333 337 336 336 336 336 339 337 336 335 337 336 337 339 331 328 327 325 324 325 322 319 314 312 318 320 324 328 336 345 347 345 344 342 340 341 343
300 300 301 302 301 304 309 310 311 328 330 329 330 332 331 331 330 332 332 336 337 338 332 327 320 317 314 315 314 312 311 308 309 321 331 345 347 347 344 343 340 340 342
299 300 301 303 301 302 302 304 304 304 306 309 317 320 315 319 320 323 326 330 334 336 334 334 331 326 318 311 310 311 309 307 306 311 331 339 345 346 344 343 341 338 339
299 301 302 303 303 301 301 302 302 303 304 303 304 304 304 306 307 306 309 314 321 328 330 330 330 331 328 323 313 309 307 306 306 305 328 330 337 342 343 343 341 339 337
299 300 301 304 302 301 300 301 301 302 301 301 302 302 303 305 304 303 304 305 307 317 324 322 322 323 324 326 321 316 310 307 306 305 308 326 327 331 338 341 340 339 337
299 299 300 299 300 301 300 301 301 301 300 300 300 301 302 304 304 302 302 303 304 305 309 319 320 318 318 320 322 325 324 315 311 310 304 311 321 324 324 336 338 338 337
298 298 298 299 299 299 299 299 299 299 300 299 299 300 302 302 302 301 301 301 302 303 303 304 312 315 315 317 321 319 320 324 317 311 308 306 313 319 318 320 328 329 336
297 297 297 299 297 298 297 296 296 296 297 299 300 302 302 302 302 301 300 300 300 300 301 302 303 305 309 312 310 310 314 318 318 319 311 307 308 313 313 316 319 319 324
299 298 297 298 298 298 298 297 297 296 297 298 300 300 302 301 301 302 300 299 299 299 300 300 300 300 304 309 307 306 303 306 311 314 317 310 307 310 312 312 316 316 315
298 297 298 299 299 298 298 298 297 296 296 296 297 298 300 300 301 300 299 299 298 298 298 298 299 298 297 300 308 305 299 298 302 307 309 310 309 307 312 312 312 315 314
297 298 298 299 299 301 298 296 294 293 293 295 295 297 297 299 299 299 299 299 298 298 297 298 300 298 297 296 299 310 307 305 301 299 306 309 312 310 304 308 312 312 313
297 298 299 299 300 298 297 296 295 294 294 295 295 295 295 296 297 298 299 298 298 297 297 297 297 296 296 295 296 296 302 303 303 303 300 302 307 310 311 307 304 310 312
298 299 299 298 298 298 297 296 294 292 292 293 293 292 293 294 296 297 298 297 297 297 297 298 298 297 296 296 296 297 297 298 299 301 303 301 302 305 311 312 310 305 307

GFSSE_sfc_thetae_054.txt.gz
Theta_e
345 352 361 358 360 359 359 359 356 354 353 353 355 355 355 357 357 357 358 358 357 357 356 358 359 359 359 358 359 357 356 357 357 357 356 356 354 352 351 348 347 343 347
348 354 361 359 357 359 358 357 354 352 351 350 349 353 353 354 356 357 357 358 357 358 357 354 357 358 358 358 358 356 356 356 355 355 355 356 354 352 351 349 347 343 347
351 354 358 360 357 358 356 355 353 353 351 350 346 345 349 353 353 354 356 356 356 356 357 356 357 356 357 357 356 356 356 355 354 353 354 349 350 352 352 349 347 347 347
352 353 354 358 357 358 355 351 351 354 350 351 347 343 346 349 351 351 352 352 352 354 355 356 356 355 354 355 355 354 352 352 351 353 350 349 349 353 352 350 347 347 346
350 351 353 359 360 359 354 351 350 353 353 351 345 343 345 344 349 349 349 348 349 350 352 353 354 355 354 354 354 352 350 350 353 352 347 345 347 352 352 350 348 345 345
347 349 357 359 359 359 355 352 351 352 352 348 344 343 343 341 346 347 346 346 344 346 347 349 352 352 354 353 353 351 350 352 350 347 345 349 345 352 352 350 348 346 344
346 350 354 357 357 356 354 353 351 352 352 348 344 342 342 342 339 340 340 341 341 342 343 344 347 352 351 352 353 353 351 352 341 344 342 344 345 352 351 350 349 347 344
345 350 349 358 358 357 354 353 350 348 352 349 345 342 341 341 340 337 336 336 336 337 337 337 343 346 352 351 353 353 352 351 342 337 340 342 351 349 349 349 349 348 346
336 345 349 354 354 357 354 355 353 352 352 349 346 345 343 341 340 340 337 335 335 335 334 334 340 344 347 349 352 352 351 351 338 338 342 341 352 348 348 347 347 348 348
318 328 329 347 350 349 348 353 354 352 352 350 348 348 347 346 345 343 343 340 339 337 336 335 335 341 342 344 348 352 350 349 337 336 340 342 351 349 349 348 347 347 349
316 317 321 328 335 346 348 351 350 353 353 352 349 349 347 344 340 340 342 344 343 341 338 337 336 336 341 342 343 348 351 339 335 336 338 350 353 351 351 350 349 349 348
305 314 316 335 343 341 345 342 342 344 342 342 342 340 340 340 341 341 341 344 345 343 340 339 339 338 335 329 330 336 336 339 334 331 335 349 350 349 348 347 348 348 349
300 303 309 316 334 335 336 337 337 334 337 338 336 336 336 337 338 338 337 336 331 334 331 329 327 329 327 323 322 323 329 333 333 329 335 349 350 347 347 345 345 346 347
299 299 301 303 309 314 317 323 329 329 328 329 333 329 326 329 330 332 333 335 337 333 328 325 320 321 322 322 316 314 319 329 330 328 330 346 349 349 347 345 344 343 343
298 299 300 300 299 301 303 302 302 307 310 317 317 312 315 316 316 323 324 329 331 335 334 333 331 328 322 315 313 312 310 308 309 313 323 340 347 349 348 346 344 342 342
297 299 300 301 299 300 299 300 300 301 301 302 303 303 305 305 304 306 307 310 314 320 331 330 329 329 328 324 321 315 308 306 306 306 315 327 344 347 348 346 345 343 342
297 299 300 301 300 299 299 300 299 301 301 300 300 301 301 302 301 302 303 304 304 308 318 322 321 324 324 326 324 321 319 312 307 304 307 327 337 344 345 347 345 343 341
298 298 299 304 301 299 299 299 299 299 299 299 299 299 301 302 301 300 300 300 302 303 308 311 316 317 316 316 319 322 322 318 316 311 305 319 328 335 341 344 346 343 341
297 297 297 298 299 299 298 299 298 298 298 298 298 298 299 302 302 299 299 299 300 301 301 304 310 312 313 313 314 315 316 316 317 321 310 307 322 329 330 338 342 341 342
296 296 296 297 298 297 297 297 297 297 298 298 297 298 300 300 301 298 298 298 299 299 299 300 300 304 309 310 315 315 311 312 317 318 315 312 310 322 325 324 333 334 340
295 295 296 297 296 297 296 295 294 295 295 296 298 299 299 300 300 298 298 298 298 297 297 298 299 300 302 305 306 306 306 308 306 310 315 310 308 311 319 321 324 325 330
296 295 295 297 297 296 296 295 295 294 295 296 298 298 299 299 299 299 297 297 297 296 297 296 296 297 299 303 301 301 298 301 304 307 308 309 307 305 311 318 317 321 320
296 295 296 297 297 297 296 296 295 295 295 295 295 296 297 298 298 297 296 296 295 295 295 295 296 295 296 296 301 301 296 295 299 303 304 306 308 309 305 308 313 315 319
296 296 297 297 298 299 296 295 293 292 292 293 293 295 295 296 296 297 297 296 295 295 294 294 298 295 294 294 296 304 303 301 297 296 301 303 304 305 307 308 306 310 312
295 296 297 298 299 298 296 294 294 292 292 293 293 292 292 294 295 296 296 295 295 295 294 294 294 294 294 293 293 294 295 298 299 298 295 298 302 302 307 308 308 305 310
295 296 297 298 298 297 296 295 293 291 290 290 290 290 292 292 293 294 295 294 294 294 294 295 295 294 295 294 294 294 295 295 294 296 296 296 299 303 303 307 310 308 306

GFSSE_sfc_thetae_057.txt.gz
Theta_e
344 351 359 358 358 357 356 356 353 352 351 354 354 353 356 356 357 358 357 357 357 356 357 358 358 357 357 357 355 356 356 356 356 355 354 353 352 351 349 347 346 342 347
347 353 359 357 356 358 356 354 352 351 348 346 350 352 353 354 356 356 357 357 358 357 355 357 357 357 356 356 355 355 355 355 355 353 353 354 354 352 349 347 346 343 344
350 353 357 358 358 358 356 353 353 350 349 345 343 347 351 350 352 355 355 355 354 356 357 357 356 356 356 356 356 355 354 353 353 352 353 348 347 350 349 347 347 346 344
351 353 355 357 359 357 354 351 352 350 351 348 341 344 346 350 349 349 352 349 350 353 355 356 355 354 354 354 354 353 352 351 351 351 348 347 348 352 350 348 347 346 346
349 352 351 357 358 357 352 350 351 352 351 347 342 343 342 347 347 347 347 347 348 349 351 352 354 354 354 354 352 351 350 352 352 351 345 344 346 350 351 349 345 345 345
346 347 352 358 356 354 352 350 350 351 348 345 342 342 341 341 345 345 344 345 343 345 347 348 352 352 353 353 352 350 350 350 349 345 343 346 344 352 350 349 347 344 343
344 348 353 356 355 354 353 352 350 351 350 345 342 341 341 340 338 339 339 339 339 341 342 343 346 351 351 352 354 351 350 348 338 342 341 342 344 350 350 348 347 345 342
346 350 350 355 357 355 353 352 348 349 350 347 344 341 340 341 339 337 335 335 335 336 336 336 342 346 350 352 353 352 350 347 338 337 340 341 350 349 348 348 348 347 343
346 346 347 350 351 354 352 351 349 351 350 347 346 344 343 342 340 340 338 336 335 335 334 334 339 343 347 348 350 353 351 349 336 338 341 339 350 348 347 347 347 347 347
319 321 330 347 348 347 346 353 351 350 351 351 351 349 348 346 346 345 343 341 341 340 338 336 335 339 343 344 346 351 351 347 336 335 338 338 349 348 348 347 347 347 348
324 325 337 337 343 346 346 347 348 350 350 348 345 346 344 341 340 340 342 345 344 345 342 340 338 337 338 342 343 344 346 338 334 334 334 344 349 349 349 349 348 348 348
307 319 331 334 335 337 338 337 337 339 337 334 334 333 336 335 336 338 340 344 344 344 344 342 341 341 338 327 328 334 330 332 334 332 331 343 349 349 350 349 349 349 349
300 306 312 322 328 331 331 331 330 330 331 330 326 326 328 328 328 329 331 334 336 338 329 329 325 323 324 324 321 319 322 324 328 331 333 340 347 349 350 349 347 348 348
298 299 301 304 304 303 305 309 313 319 318 312 309 313 315 314 317 321 322 322 321 330 332 331 329 328 321 318 317 316 313 315 324 328 330 338 344 348 348 349 347 345 345
298 298 298 299 298 299 300 300 300 301 303 304 303 304 305 304 304 308 308 312 313 315 325 328 328 329 327 326 323 314 310 309 308 309 313 328 338 346 347 348 347 346 344
296 297 298 299 297 298 298 298 298 299 299 299 299 300 302 301 299 301 301 302 303 305 311 317 318 320 323 325 324 324 321 316 308 305 306 311 326 341 347 347 348 347 345
296 297 298 299 298 298 297 298 298 299 299 298 298 298 299 300 298 299 299 299 299 301 305 306 309 313 314 316 314 319 322 322 318 316 310 306 319 333 343 347 348 347 346
296 297 299 303 299 297 297 297 297 297 297 297 297 297 299 300 299 298 298 297 299 300 302 301 303 307 307 310 309 311 315 316 315 315 314 308 316 327 338 345 347 347 346
296 296 297 298 298 298 297 297 296 296 297 296 296 297 298 300 300 296 296 297 297 298 297 298 300 302 305 305 306 310 311 310 310 314 316 314 309 319 330 337 344 343 346
296 295 296 297 297 296 295 295 295 296 296 296 296 297 298 299 298 296 296 297 296 296 295 296 296 298 301 303 307 307 306 307 307 309 306 314 312 310 321 325 330 337 343
294 294 294 296 295 295 295 294 293 294 294 295 296 297 297 298 298 297 297 296 296 295 294 295 295 297 297 300 301 299 301 304 304 304 306 310 307 308 309 320 324 328 332
294 294 294 295 295 295 295 294 294 293 294 294 296 296 297 297 297 297 295 295 294 294 294 294 293 293 295 298 296 297 293 296 300 305 303 306 305 308 308 311 315 319 323
293 294 295 295 296 296 296 295 294 293 293 294 294 294 296 295 295 295 294 294 293 293 293 292 293 292 292 293 296 296 292 291 295 299 302 303 303 305 305 308 310 313 317
294 294 295 296 296 297 295 294 292 292 291 292 292 293 293 294 294 295 295 294 293 293 292 292 296 293 291 291 293 297 298 297 295 294 296 300 302 303 302 305 309 309 310
294 294 295 296 297 297 295 294 293 291 291 291 291 291 291 292 293 294 294 293 293 292 292 292 292 292 291 291 291 291 291 293 295 295 292 293 299 301 302 304 306 309 310
294 295 295 296 297 296 295 293 292 290 290 289 289 289 290 291 292 293 294 293 292 292 292 293 292 291 291 291 291 291 292 291 291 292 292 294 295 297 302 302 304 306 307

GFSSE_sfc_thetae_060.txt.gz
Theta_e
342 349 357 358 356 356 356 353 352 350 350 353 352 353 355 356 356 356 357 358 356 356 358 357 357 357 357 355 356 355 356 356 355 354 353 352 351 350 349 348 347 342 348
346 352 358 358 357 356 355 353 351 348 345 347 351 351 352 353 356 356 356 356 357 357 358 357 357 357 356 356 356 356 355 353 353 353 353 354 350 350 349 348 347 343 344
348 353 354 356 358 356 354 352 350 349 345 342 344 348 351 349 351 354 353 354 355 356 356 357 356 355 356 356 356 354 353 353 352 352 352 347 347 349 349 348 346 347 346
349 352 354 356 357 356 352 351 350 350 349 342 341 343 348 348 348 349 350 349 349 351 354 355 355 354 354 354 353 353 352 351 351 351 348 347 349 351 350 347 346 347 349
348 352 353 355 355 354 351 351 351 351 349 342 342 341 342 346 346 346 347 346 347 349 350 352 354 354 353 353 352 351 352 351 351 351 345 345 347 350 349 347 345 345 347
346 348 353 356 356 353 351 349 351 350 346 342 342 342 339 342 344 343 342 342 342 343 347 347 350 353 352 352 353 350 351 349 349 345 343 346 346 350 349 348 346 344 344
343 346 351 358 354 353 351 350 350 350 348 344 341 341 341 339 337 337 337 338 337 339 339 340 345 350 352 353 353 351 350 347 340 342 341 342 344 349 348 347 346 344 343
344 348 350 355 356 352 351 351 348 350 349 346 344 341 340 340 339 338 336 335 336 336 336 336 338 344 349 350 351 351 350 346 337 338 341 341 346 348 346 347 346 345 342
346 346 345 349 350 353 353 350 349 350 350 349 348 346 344 343 341 341 341 339 338 339 339 338 336 339 344 347 348 350 350 348 336 336 341 339 345 347 346 345 346 346 345
325 326 339 344 346 345 346 353 352 352 351 350 349 350 349 346 347 346 346 344 344 344 343 341 339 338 338 341 344 346 348 345 335 336 336 338 345 348 347 347 346 346 347
331 333 337 340 342 339 343 345 344 343 340 337 337 341 335 336 337 338 345 346 347 347 346 344 342 342 341 338 338 338 341 336 335 334 333 339 345 348 348 349 348 347 347
313 323 328 331 332 331 335 334 334 331 327 324 325 326 325 325 325 329 332 337 341 340 339 339 338 335 330 327 324 327 323 325 327 331 333 341 343 349 349 349 348 349 348
304 307 309 317 322 325 325 323 319 313 311 308 309 312 313 316 317 318 317 317 318 331 331 331 329 327 322 321 320 319 317 317 321 325 330 338 342 346 350 348 349 348 347
300 301 302 304 303 302 305 307 308 307 304 302 303 305 304 304 304 306 307 309 308 311 318 322 325 327 327 325 322 318 314 312 313 317 321 329 339 344 349 349 348 347 346
298 298 298 298 297 298 299 298 299 299 299 300 299 301 301 300 299 301 301 302 302 303 308 311 314 317 319 321 323 322 320 317 313 309 308 319 325 332 341 347 348 348 347
296 296 297 298 296 297 297 297 297 297 297 297 296 297 300 298 297 298 298 298 298 300 302 302 304 309 311 311 314 315 315 319 318 316 312 310 321 324 330 338 347 347 346
295 296 297 297 297 296 296 297 297 298 297 296 296 296 298 298 297 296 296 296 296 298 300 299 299 303 303 306 306 309 311 315 316 314 312 312 312 320 325 330 340 346 346
295 296 298 302 297 296 295 295 296 296 296 295 295 296 298 300 297 296 295 295 296 297 298 297 298 300 300 301 302 303 307 310 310 309 311 314 311 312 321 328 333 340 346
295 296 297 296 297 297 295 295 295 296 295 294 294 295 296 299 298 295 295 295 295 295 294 296 296 297 298 298 300 302 305 305 305 309 307 310 310 312 314 323 329 336 344
295 295 295 295 295 295 294 294 294 294 294 294 294 295 296 297 297 295 295 294 294 294 294 293 293 295 296 297 302 302 301 302 303 303 304 307 310 309 308 315 320 325 331
294 293 294 295 294 294 294 293 293 293 293 294 295 295 296 296 296 295 294 294 294 293 292 292 292 293 293 296 296 295 296 299 298 301 302 306 306 307 307 310 315 320 325
294 293 293 294 294 294 294 293 293 292 292 293 295 294 296 295 295 296 293 293 293 292 292 291 291 291 292 294 292 293 290 293 296 304 302 303 303 304 307 307 307 313 318
292 293 293 294 294 295 295 294 293 292 292 292 293 293 294 294 294 294 293 292 292 291 291 290 290 290 290 291 293 292 289 288 292 295 297 299 299 300 303 304 305 308 312
292 293 293 294 294 295 294 293 292 291 291 291 291 292 292 292 292 293 293 292 291 291 290 291 294 291 289 289 290 295 294 293 291 290 293 297 299 300 299 301 304 307 308
292 293 293 294 294 296 293 293 292 291 290 290 290 289 290 291 292 293 292 292 291 291 291 291 290 290 290 289 289 289 289 290 292 292 289 292 294 299 300 301 303 305 306
293 293 294 294 295 295 294 293 291 290 289 288 288 288 289 290 291 292 292 291 291 291 291 291 291 290 290 289 289 289 290 289 288 289 288 290 291 294 298 301 301 302 304

GFSSE_sfc_thetae_066.txt.gz
Theta_e
350 354 356 356 357 355 353 351 347 352 353 352 353 354 357 357 357 357 357 358 358 357 357 356 357 357 357 358 356 355 355 354 354 353 351 351 351 350 350 350 350 348 355
351 351 357 357 356 354 352 350 345 343 344 348 352 351 352 355 353 353 354 356 357 356 356 356 356 355 357 356 356 355 355 354 354 353 351 354 352 350 349 351 350 345 352
348 350 353 355 357 354 352 351 349 347 342 344 347 350 349 349 350 351 350 352 354 355 356 356 355 355 355 355 355 354 354 353 353 351 352 351 349 349 348 349 349 348 349
346 349 349 355 356 353 351 351 351 349 343 343 343 347 347 347 346 347 346 345 349 351 352 354 354 354 354 353 353 353 352 352 351 350 345 344 344 349 348 347 347 350 351
346 349 353 356 355 352 351 351 351 348 344 344 343 342 346 345 343 342 340 340 342 345 346 349 352 353 353 354 351 352 351 353 350 349 348 349 346 348 348 347 344 346 349
347 349 354 356 355 351 350 351 350 348 345 343 343 342 340 340 339 338 338 338 338 338 338 339 345 349 352 352 353 351 350 348 351 349 348 347 348 348 348 348 346 345 346
347 348 350 356 354 352 350 350 351 350 347 345 343 343 343 342 342 339 338 341 342 342 339 337 339 342 347 349 351 351 350 348 346 348 347 347 348 348 347 346 346 345 344
346 348 350 355 354 352 351 349 351 350 349 347 346 346 346 343 343 344 344 344 344 344 343 342 340 338 341 345 347 349 350 348 347 346 347 348 347 349 347 346 346 345 343
346 348 351 350 352 352 351 350 351 351 350 351 351 350 348 349 349 348 347 348 348 348 347 345 345 344 342 340 341 344 346 348 347 345 344 344 347 348 349 345 345 346 345
346 347 350 349 349 350 351 350 350 348 347 344 343 343 343 345 345 341 346 346 345 345 345 343 342 341 339 339 340 338 336 340 343 344 342 344 344 347 349 350 346 345 345
342 345 349 348 350 351 346 341 337 333 331 331 330 330 332 334 331 327 327 333 336 337 337 337 337 336 337 334 333 333 334 329 329 332 337 340 340 344 346 349 349 346 345
341 344 348 348 349 346 335 322 316 317 319 320 321 322 321 321 319 319 319 320 322 323 323 326 328 329 336 335 337 337 336 335 332 330 329 334 335 338 344 346 349 348 347
341 342 344 343 342 338 326 323 321 320 318 317 316 316 316 316 316 316 316 316 316 317 316 318 319 321 323 324 328 331 331 332 335 334 331 328 330 332 334 342 346 347 347
335 335 335 335 331 324 321 318 315 314 313 313 313 313 313 313 312 312 312 313 313 313 313 313 313 314 315 316 317 320 323 326 330 332 334 326 327 331 333 333 338 346 347
327 326 325 323 319 317 315 313 312 311 310 311 312 312 311 311 310 311 310 311 311 311 311 310 311 311 312 312 312 312 314 316 320 323 326 325 321 325 329 333 334 336 341
320 317 316 315 315 313 312 312 310 311 311 311 312 311 310 310 309 309 309 309 309 309 309 309 309 309 309 310 310 311 312 312 313 315 317 320 322 320 323 325 329 333 335
314 312 311 312 312 312 311 311 311 310 311 311 311 310 310 310 309 309 308 308 308 308 308 308 308 308 308 308 308 309 310 311 312 313 313 315 317 323 320 319 324 328 334
311 311 311 310 311 311 310 310 310 310 311 311 311 311 309 309 309 309 309 308 308 308 307 307 306 306 306 306 306 307 308 309 310 311 312 313 314 314 320 324 322 326 330
311 310 310 311 309 309 310 310 310 310 310 311 311 311 310 310 309 310 309 308 308 308 307 306 306 305 305 305 305 306 307 307 308 308 309 311 313 315 317 324 320 323 326
310 311 311 310 309 309 310 310 310 310 310 311 311 312 309 311 309 309 309 308 308 307 306 306 304 305 305 305 304 304 307 307 308 308 308 310 312 316 319 318 317 318 317
309 309 310 309 309 309 309 308 309 309 309 310 310 309 309 309 308 308 308 307 307 306 305 305 304 304 303 305 303 303 304 306 307 309 310 310 312 313 315 315 314 315 315
308 309 309 309 309 309 310 311 311 310 311 311 311 309 309 308 307 306 306 306 306 305 305 305 304 303 303 304 300 300 298 301 305 310 310 309 310 311 312 313 313 313 314
308 309 309 309 309 310 310 311 310 310 310 308 309 309 308 306 306 305 306 305 304 304 303 304 304 303 300 303 302 299 296 295 298 302 304 306 306 306 307 307 309 310 310
308 310 309 309 308 309 310 309 309 309 308 310 309 309 307 305 305 305 304 304 304 304 303 303 303 302 301 299 301 301 301 300 295 295 301 302 304 303 305 306 307 308 309
309 309 308 308 307 308 308 310 310 308 309 309 307 305 305 306 306 304 304 303 303 303 303 302 301 301 301 299 299 299 299 299 299 296 294 298 301 303 304 305 306 306 308
307 308 308 307 307 308 309 309 309 308 307 305 304 303 304 304 304 304 303 303 303 302 301 301 301 301 300 300 300 299 298 297 296 296 295 296 297 300 302 303 304 304 306

GFSSE_sfc_thetae_069.txt.gz
Theta_e
345 353 356 356 356 354 351 347 348 350 351 353 353 355 356 355 355 356 356 358 357 357 357 357 357 356 357 357 356 355 354 354 353 352 352 351 351 350 352 348 352 352 356
345 350 357 357 355 353 351 347 345 342 346 351 352 352 352 353 351 352 354 356 356 356 356 356 356 357 355 357 355 355 354 353 352 351 351 353 351 350 350 350 352 350 354
344 348 354 357 355 353 351 349 349 344 344 345 348 349 349 348 349 348 347 351 353 354 355 355 355 355 355 355 354 355 353 353 351 353 355 347 345 349 348 348 351 352 349
343 345 349 356 354 352 351 352 350 344 344 343 344 347 347 345 343 342 342 343 348 349 350 353 354 354 354 353 353 354 352 353 352 354 344 342 343 349 347 347 347 350 347
343 346 353 355 353 352 351 351 349 345 344 344 342 343 344 342 340 339 339 339 340 340 342 346 350 353 353 353 352 353 351 351 353 351 346 348 350 348 348 347 345 347 348
343 348 355 356 353 351 351 350 349 348 346 345 345 343 341 340 338 338 341 343 342 340 338 339 343 347 351 352 352 352 351 351 352 347 344 344 346 349 348 347 346 346 346
343 346 349 356 353 351 350 351 350 349 347 346 345 344 343 345 343 342 343 344 345 344 343 341 339 341 345 347 349 351 351 351 347 343 344 343 347 350 348 346 346 345 345
344 346 348 355 353 352 350 352 352 351 350 349 348 350 348 345 346 347 347 347 348 347 346 345 344 341 340 342 345 347 349 350 346 341 341 345 348 348 349 345 345 346 345
345 345 345 348 351 353 352 351 352 352 351 351 350 349 349 349 349 349 349 347 348 349 347 345 344 342 343 341 339 338 338 343 343 340 338 344 348 348 349 349 344 345 345
343 344 345 349 347 350 351 351 349 347 344 343 343 343 345 343 339 338 341 340 342 341 341 340 339 339 339 335 336 336 337 338 338 336 337 342 344 345 347 348 348 344 344
340 341 346 346 346 350 345 341 337 335 333 333 333 334 336 333 331 327 324 326 328 328 328 330 331 333 337 339 336 335 338 335 334 328 329 339 339 340 342 345 348 348 345
338 340 344 345 347 345 338 329 322 323 325 325 325 325 324 322 319 320 323 323 322 322 323 325 326 334 334 328 332 339 334 335 335 334 332 333 333 334 336 339 345 348 347
338 341 342 343 344 340 330 327 327 326 323 319 317 317 316 315 315 315 315 315 316 322 314 316 316 315 316 318 320 323 326 328 330 333 334 333 332 333 335 335 336 344 348
339 340 341 342 340 332 328 326 322 317 315 313 313 313 313 312 312 312 312 313 314 313 312 312 312 312 313 312 312 312 313 316 322 326 331 328 325 328 331 335 335 336 343
336 335 335 333 329 326 321 317 314 312 312 313 312 312 313 312 311 312 311 311 311 311 310 310 310 310 310 310 311 311 311 312 312 314 321 328 321 322 325 330 331 334 336
330 328 329 326 322 318 315 313 312 312 312 313 313 312 311 311 311 311 310 310 310 310 309 309 308 308 308 309 309 310 310 311 311 313 315 318 327 323 322 323 326 330 333
325 321 318 316 315 314 313 312 312 312 312 312 312 312 311 312 311 311 311 310 309 310 309 308 308 308 308 308 308 308 309 309 311 310 313 315 317 326 325 322 321 324 329
318 315 314 313 313 313 312 311 311 312 312 312 312 312 311 311 312 311 311 310 310 310 310 308 307 307 307 307 307 308 307 309 308 309 311 313 315 314 321 327 323 323 325
314 313 312 312 312 311 310 310 311 311 311 312 312 312 311 310 310 311 310 310 310 310 309 308 307 306 305 306 306 307 307 308 309 309 309 312 314 316 316 322 323 322 323
313 312 312 312 310 310 311 310 311 311 311 312 311 312 310 310 310 310 310 310 309 309 308 308 306 307 306 306 304 304 307 308 309 309 309 309 312 316 317 322 321 319 325
312 311 311 310 310 310 310 309 309 309 310 311 311 310 309 310 309 309 309 309 309 308 307 307 306 305 305 306 304 304 305 305 306 308 309 310 312 313 315 315 318 316 316
310 311 311 310 310 310 311 311 312 311 312 312 313 311 310 309 308 308 308 308 307 307 306 306 307 304 304 305 301 302 298 301 305 307 308 306 305 309 309 311 312 314 315
310 310 310 310 310 311 312 312 312 311 312 310 310 310 310 309 308 307 307 306 306 306 306 306 306 306 302 303 303 300 296 295 299 302 303 305 305 306 306 307 308 309 310
311 312 311 311 310 311 312 311 310 309 309 311 311 311 310 309 307 307 306 306 305 305 305 305 304 303 303 300 302 301 301 300 296 295 301 303 303 303 305 306 306 306 308
311 311 311 311 310 311 310 311 311 310 311 311 310 309 308 308 308 307 306 305 305 305 304 303 302 301 302 301 301 300 300 300 300 297 294 298 301 303 305 305 306 306 307
311 312 311 310 309 310 311 310 311 310 310 309 308 307 306 307 307 306 306 305 305 304 302 303 302 301 301 300 301 300 299 298 297 297 295 296 297 300 303 304 305 305 306

GFSSE_sfc_thetae_072.txt.gz
Theta_e
346 351 358 358 355 352 347 345 347 348 352 353 354 355 354 353 354 356 357 357 357 357 357 357 357 357 356 356 356 355 353 353 353 353 350 351 351 350 351 353 354 350 356
346 352 359 357 355 352 348 348 342 345 349 351 350 351 351 350 349 350 354 355 356 357 356 356 356 356 356 355 355 354 353 352 351 351 352 351 350 350 349 353 351 349 355
345 351 354 356 354 352 351 350 344 344 344 347 348 348 346 345 345 344 346 351 352 352 354 355 355 355 354 354 355 353 354 353 353 356 355 343 343 348 348 349 351 348 353
342 348 351 355 353 352 352 350 345 345 344 343 346 345 343 342 341 340 341 343 344 346 348 352 354 354 354 353 354 353 351 352 354 356 342 346 344 348 347 346 348 347 349
347 349 352 354 352 351 352 349 346 346 345 344 342 342 341 339 339 341 342 341 339 340 341 344 348 351 353 353 353 353 353 353 354 352 341 342 342 348 348 347 346 347 348
344 348 356 354 353 352 351 350 349 347 346 346 345 345 345 341 342 345 346 346 344 343 341 339 340 345 348 348 352 352 352 352 353 345 343 347 344 350 348 347 346 346 347
342 347 353 354 352 352 352 351 349 348 347 347 347 346 346 347 347 347 347 348 348 347 347 346 341 340 342 345 347 349 351 351 344 341 339 343 346 351 349 347 347 345 346
339 346 350 355 353 352 353 353 353 352 351 350 351 351 348 348 349 349 350 350 350 349 347 346 345 344 343 340 339 340 342 345 341 339 339 344 350 350 350 347 346 346 345
341 343 345 347 351 355 352 353 352 351 351 350 349 350 350 348 347 347 346 346 344 345 343 342 341 341 340 340 339 338 338 340 333 336 336 341 350 348 348 349 346 345 346
339 343 344 345 347 347 348 351 349 347 347 346 345 347 344 339 336 335 333 334 334 334 332 333 333 336 338 339 339 339 341 342 329 324 336 339 343 342 343 346 348 345 344
337 343 343 343 345 345 343 342 342 341 337 338 337 340 342 321 322 319 324 325 325 325 325 326 328 334 338 341 340 343 343 332 330 327 332 338 337 337 338 340 345 348 345
333 340 340 342 344 343 337 328 321 321 320 320 319 317 316 314 312 317 323 329 327 327 330 330 331 329 322 313 316 327 322 321 325 328 329 337 336 336 337 337 337 344 348
332 338 341 342 342 333 326 320 319 319 315 309 308 309 308 309 308 308 308 309 308 317 308 310 308 308 306 307 306 305 307 309 316 321 333 335 333 333 334 336 337 337 343
335 334 339 341 337 327 323 320 314 309 307 306 306 306 305 306 305 305 305 306 305 305 303 304 304 304 304 304 302 302 302 303 305 307 327 332 327 325 325 330 334 336 337
332 333 334 330 324 321 315 310 307 306 305 306 306 306 306 306 303 304 303 304 303 304 303 302 302 302 302 303 303 302 301 302 303 305 308 328 326 322 322 323 326 332 334
329 328 325 325 318 313 308 306 305 306 307 307 306 305 306 305 303 304 304 304 303 303 302 302 300 301 301 302 303 302 301 301 302 303 306 308 329 329 323 322 322 323 327
324 324 321 314 311 307 305 306 306 306 308 306 306 305 306 307 305 305 304 303 303 304 304 303 302 302 302 303 300 301 302 302 302 301 302 305 309 323 330 324 321 322 323
317 313 310 311 307 306 305 305 305 306 306 306 305 305 305 306 305 305 305 303 303 304 304 302 302 301 300 300 299 300 300 301 301 301 303 304 305 308 316 326 321 322 323
311 307 306 306 306 306 304 304 304 304 305 305 305 305 305 306 306 305 304 304 304 304 303 303 302 300 299 299 300 298 299 300 301 304 301 302 304 307 308 318 325 325 322
308 307 306 306 305 304 303 303 303 303 304 305 304 305 305 305 305 304 304 304 303 302 303 301 299 300 299 299 302 301 298 299 300 300 300 303 303 306 307 308 313 315 323
306 305 305 304 303 303 302 302 302 302 303 303 305 304 304 304 304 302 303 302 302 301 300 301 300 298 298 299 297 297 297 300 298 298 299 300 301 302 304 307 309 311 311
304 305 304 304 303 304 304 304 304 304 305 305 307 305 304 304 303 303 301 301 301 300 299 299 299 298 297 298 294 293 291 294 296 298 297 299 297 298 300 302 301 303 305
304 304 304 304 304 304 305 305 305 305 305 304 304 304 305 305 303 302 301 299 299 299 298 298 298 297 295 296 295 293 289 288 293 296 295 297 296 297 297 299 300 301 301
305 305 305 305 304 305 306 304 303 303 301 304 305 305 305 304 302 302 301 300 299 298 297 297 299 295 294 292 294 298 294 292 290 290 293 294 296 297 296 297 298 299 299
306 305 305 304 304 304 304 305 304 304 305 305 304 302 302 302 302 302 301 299 298 298 297 296 296 295 294 293 292 292 292 292 292 291 289 292 294 295 296 297 298 298 299
306 306 306 304 304 304 304 304 304 303 303 303 303 301 301 301 301 301 301 299 298 297 297 296 295 295 294 293 293 292 292 290 291 290 290 291 291 294 295 296 296 296 298

GFSSE_sfc_thetae_075.txt.gz
Theta_e
343 351 359 357 352 347 345 346 347 351 352 352 354 352 351 352 354 356 357 357 356 356 356 356 356 356 355 355 355 353 353 353 353 350 349 350 350 352 354 352 353 351 355
349 353 357 356 352 349 347 343 345 348 349 349 349 349 348 348 347 351 352 353 355 356 356 355 355 355 355 355 354 354 354 353 352 351 348 349 350 349 351 351 352 351 355
349 353 353 355 351 351 349 345 344 343 346 347 345 343 343 342 342 345 347 348 349 352 354 354 354 354 353 354 354 353 353 354 355 353 350 341 340 347 347 348 348 352 354
350 352 351 353 353 352 349 346 345 343 343 345 344 342 340 340 340 341 342 342 343 346 349 351 353 353 354 354 353 353 354 354 354 353 344 343 342 347 347 347 347 348 350
347 351 350 353 352 353 349 347 347 346 344 343 343 341 340 342 345 346 345 342 340 340 340 342 347 349 349 352 352 353 353 353 354 348 341 340 342 346 347 346 346 348 349
348 349 354 353 352 351 351 350 348 347 347 346 346 347 343 345 347 347 348 348 347 346 344 341 340 342 346 345 349 350 351 351 348 340 344 347 342 349 347 346 346 346 349
348 350 349 353 352 352 351 349 349 348 349 348 347 347 348 348 348 350 351 350 350 348 347 346 345 343 341 340 339 340 341 343 338 339 341 343 345 351 348 347 346 345 346
348 350 348 353 353 354 353 352 353 352 351 351 351 349 349 350 350 349 348 347 347 346 345 344 343 343 342 342 341 340 339 340 332 337 342 343 350 350 350 347 346 345 345
348 348 347 348 351 355 354 353 352 351 351 351 350 349 347 346 344 343 343 341 339 336 336 334 337 338 338 340 341 342 342 343 331 328 340 340 349 347 347 347 346 345 345
343 345 344 346 346 347 347 351 350 349 349 348 348 343 340 336 331 330 329 329 329 328 328 330 334 336 334 341 341 342 346 342 329 330 336 338 343 341 341 344 346 345 344
340 341 344 344 344 343 342 345 344 343 341 342 343 344 326 319 317 317 329 331 326 327 329 330 330 330 326 323 327 333 330 320 323 330 331 341 339 338 338 338 339 346 345
337 339 342 342 340 339 338 330 326 327 322 320 316 321 311 309 312 316 323 324 323 323 323 323 323 321 313 304 304 312 305 305 312 326 330 340 338 337 337 337 337 338 346
336 338 339 340 339 330 325 320 315 314 305 304 304 305 304 305 304 304 305 304 303 312 303 305 303 302 301 301 301 300 302 302 302 315 334 335 330 327 327 330 335 336 337
335 339 341 340 326 323 321 316 312 304 303 302 303 303 302 302 301 301 301 301 301 300 300 300 300 300 300 301 299 299 299 300 301 302 317 331 326 323 321 322 325 333 335
331 333 336 327 321 316 306 304 303 303 302 302 302 303 303 301 301 300 300 300 300 300 299 299 298 299 299 300 301 300 299 299 299 301 302 318 328 325 323 320 322 323 328
325 323 323 321 312 307 303 302 302 303 303 303 302 302 304 301 301 301 301 300 300 300 300 300 299 299 299 299 300 300 299 299 299 300 300 302 320 327 324 321 321 321 323
321 321 318 312 306 303 302 303 303 304 305 303 302 303 304 303 302 301 300 300 300 301 301 300 300 300 299 300 298 299 299 299 299 299 300 301 304 315 321 325 320 320 322
318 311 308 309 304 302 302 302 303 304 303 302 301 302 303 304 303 302 301 300 301 302 301 300 299 299 298 298 296 297 296 298 298 299 300 300 301 303 310 318 322 317 320
307 305 304 303 303 303 302 302 302 302 302 301 302 302 302 303 304 302 301 301 301 301 301 300 299 298 297 297 299 298 297 297 297 301 297 299 300 302 304 313 324 325 320
305 304 304 303 301 301 300 299 300 300 300 301 302 302 303 303 303 302 301 301 301 300 299 298 297 298 297 297 300 299 296 298 297 296 296 299 300 300 301 305 307 312 324
304 303 303 301 299 300 299 299 299 299 300 300 302 302 302 302 302 300 301 300 300 299 298 298 297 296 296 296 294 294 294 296 294 293 295 295 297 297 297 299 300 306 309
301 302 302 301 300 300 301 300 300 299 301 301 302 302 303 302 302 301 299 299 298 298 297 296 296 295 295 295 292 290 289 291 293 297 298 295 297 296 297 298 297 297 298
300 300 301 301 300 302 302 302 302 302 302 301 301 301 302 302 302 300 299 298 297 296 296 295 295 294 292 293 293 291 287 286 291 292 293 294 293 294 295 295 296 297 297
301 301 301 301 301 303 302 302 301 300 299 300 301 302 302 303 301 300 299 298 297 296 295 295 298 293 292 290 291 295 291 290 287 287 290 291 293 294 293 294 295 296 297
302 301 302 301 301 301 301 302 301 300 301 302 301 301 300 300 301 300 298 297 296 295 295 294 293 293 292 291 290 290 289 290 289 288 288 290 291 292 293 294 294 294 296
301 302 301 301 301 301 300 301 301 300 300 300 300 298 298 298 298 298 299 296 296 295 294 294 293 292 292 291 291 290 290 288 289 287 287 288 289 291 292 293 293 294 295

GFSSE_sfc_thetae_081.txt.gz
Theta_e
343 349 354 351 350 347 347 349 350 351 350 349 349 351 353 353 354 355 354 354 354 354 354 352 354 353 353 354 353 352 352 349 347 346 345 347 349 351 354 354 354 351 355
347 351 354 348 346 345 347 348 347 348 348 347 345 346 348 349 348 349 352 353 353 354 354 353 353 353 353 353 351 352 352 350 348 346 346 347 349 348 350 353 355 351 355
349 351 346 349 346 345 345 346 346 345 344 342 341 342 342 344 346 348 349 349 350 351 353 352 353 353 353 353 352 351 352 351 349 347 346 338 338 346 347 350 351 353 355
349 349 345 350 347 345 343 344 345 344 342 341 340 340 341 341 341 342 342 343 343 345 348 349 347 348 350 350 350 350 349 350 349 346 340 340 340 345 346 347 350 352 353
347 346 345 350 347 346 345 343 344 343 342 341 341 344 345 345 343 342 342 342 341 340 340 340 340 340 341 341 341 342 346 351 348 343 339 337 338 343 345 346 347 348 351
346 343 350 351 348 347 347 346 345 345 346 343 343 345 346 347 347 348 348 345 346 347 346 345 344 343 344 345 343 341 345 347 345 341 341 343 339 347 346 345 345 347 346
343 345 346 352 349 349 349 348 348 347 347 347 347 346 348 349 348 349 348 346 345 345 345 344 343 343 344 344 343 344 342 345 338 339 339 341 343 347 347 345 344 345 347
344 345 345 350 350 350 349 349 350 349 349 348 348 348 349 349 348 346 343 341 336 337 337 336 337 341 339 334 334 335 342 337 338 338 339 339 347 345 348 346 345 343 344
345 344 344 346 348 351 351 352 351 350 350 350 349 347 346 345 341 338 333 332 332 333 331 331 330 330 330 330 328 328 335 336 325 333 336 335 346 342 344 346 346 344 343
342 342 341 346 348 347 347 351 351 351 350 348 345 341 334 333 331 329 330 330 329 328 328 327 326 325 326 326 325 324 322 332 329 330 331 335 342 340 339 339 341 347 343
340 339 341 342 344 344 344 347 348 349 346 342 335 330 321 313 314 316 329 327 326 326 325 324 323 322 317 318 321 319 313 302 319 326 330 340 336 335 335 337 338 339 345
337 339 340 341 340 340 344 335 328 331 329 330 317 310 308 309 312 314 319 322 322 321 321 321 319 316 308 299 300 306 299 299 301 307 322 329 330 326 325 326 331 337 339
336 340 340 339 339 337 334 323 313 306 305 314 306 305 307 302 300 299 299 299 299 309 299 301 300 299 298 298 298 297 298 297 297 300 306 321 324 326 325 323 325 328 335
334 338 340 339 335 327 322 313 305 301 300 300 300 300 299 298 297 297 298 298 298 298 297 297 297 297 298 298 296 296 295 296 296 298 301 318 321 324 325 323 322 323 325
334 336 339 335 326 320 314 309 301 301 299 300 300 300 299 298 297 298 297 298 298 298 297 297 297 297 297 297 297 297 296 295 296 297 298 313 316 319 323 323 322 322 322
335 336 335 330 320 313 309 304 300 300 299 299 299 299 300 299 298 298 298 298 298 297 297 297 297 296 296 296 297 297 296 295 296 296 298 299 312 316 318 321 323 319 320
335 333 329 321 314 311 305 301 300 300 301 299 299 300 300 300 299 298 298 297 297 298 298 298 298 297 297 298 295 296 297 296 296 295 297 297 300 310 317 321 322 322 319
331 327 321 318 307 303 303 301 301 300 300 299 300 301 302 301 300 298 298 298 298 299 298 297 297 296 296 295 295 296 295 295 295 295 296 296 298 299 303 318 321 325 324
327 318 312 304 304 302 300 300 300 300 299 298 299 299 301 302 301 299 299 298 299 298 297 297 296 296 295 295 297 296 295 294 294 297 294 295 296 296 296 306 311 312 317
318 316 305 303 300 299 298 298 298 298 298 298 298 299 300 301 301 299 299 298 298 297 296 296 295 295 294 294 298 296 293 293 292 292 292 294 294 295 295 296 296 298 311
303 302 301 300 298 299 296 296 296 297 297 297 298 300 299 300 301 299 298 298 298 297 296 296 295 294 294 294 292 292 291 292 290 291 291 291 293 294 294 295 294 295 296
302 302 300 300 298 298 298 296 297 296 296 297 299 300 300 299 299 299 298 298 297 296 295 294 294 293 293 292 290 287 287 289 290 293 291 292 291 292 294 294 293 294 294
299 300 300 298 298 298 298 299 299 300 299 298 298 298 299 299 299 298 297 297 296 295 294 293 293 292 291 291 290 290 285 283 286 290 290 291 290 291 291 292 293 293 293
299 299 299 298 298 298 299 299 299 298 297 298 298 299 299 299 298 298 297 296 295 294 293 293 294 292 291 289 289 292 289 288 286 284 288 289 291 291 290 291 292 293 293
298 298 298 297 297 297 298 298 298 297 297 297 299 299 299 298 299 298 297 295 294 293 292 293 292 291 290 289 289 288 287 287 286 285 286 286 290 289 290 290 291 291 292
297 297 297 296 296 297 297 298 298 297 297 298 297 297 296 296 296 295 296 294 294 293 293 292 291 290 290 289 289 288 288 287 286 285 283 284 286 289 289 291 291 291 292

GFSSE_sfc_thetae_087.txt.gz
Theta_e
347 351 353 351 349 353 353 353 351 350 350 351 354 353 354 355 354 355 355 354 354 354 353 352 353 354 354 354 353 351 350 349 347 346 348 349 353 354 356 355 356 353 355
350 351 353 351 348 351 351 350 347 348 346 347 350 350 350 350 351 353 354 354 354 353 353 353 353 352 353 352 352 352 350 349 347 347 346 348 349 353 354 353 356 353 355
350 350 349 349 348 348 348 347 346 344 342 343 344 346 347 347 349 348 347 350 350 349 348 348 348 348 347 347 351 352 349 348 348 347 346 341 344 348 351 352 354 354 355
350 348 345 348 348 348 347 345 343 341 340 340 341 341 343 344 345 344 343 343 343 342 341 343 344 345 345 346 352 353 349 348 348 347 342 344 339 346 348 349 351 353 353
348 345 345 347 347 346 346 345 343 342 341 342 343 342 341 342 342 342 343 344 344 344 344 345 345 345 346 347 351 353 349 349 348 346 346 347 346 345 346 347 347 350 352
346 346 349 347 346 345 346 345 343 342 343 345 346 346 346 346 345 347 346 346 346 345 345 346 344 341 342 346 349 350 349 348 346 347 346 346 344 349 347 345 347 347 349
345 346 346 348 346 345 345 345 346 344 344 345 345 347 348 349 349 348 345 345 341 341 344 340 338 336 338 343 346 348 348 346 344 344 343 343 343 345 350 348 345 346 347
345 346 346 348 348 348 347 347 348 347 347 348 348 348 349 348 345 341 339 339 337 337 338 337 335 334 334 342 345 344 344 341 339 339 340 342 345 342 342 345 348 345 345
345 346 348 345 348 350 350 349 349 349 350 349 349 348 346 340 337 336 336 335 335 333 333 333 332 331 330 331 334 337 338 338 338 337 335 337 343 340 341 341 341 347 345
345 346 346 346 346 346 349 352 351 350 349 349 346 340 336 336 335 334 333 332 331 330 329 327 326 327 327 326 324 322 320 321 325 325 329 330 336 332 332 333 340 342 347
343 345 346 346 346 348 350 349 350 349 348 342 338 331 326 325 328 328 330 329 328 327 326 324 322 319 317 319 320 317 313 310 312 313 322 328 330 332 330 329 331 338 341
339 342 345 346 346 348 347 347 347 342 333 328 321 319 320 323 324 324 326 326 325 324 322 320 318 315 311 308 308 310 308 309 309 309 318 325 327 330 329 326 327 330 335
339 341 344 347 348 348 345 343 341 336 326 317 316 316 315 313 312 311 310 310 311 312 308 309 308 308 307 307 307 306 307 307 307 308 311 320 322 325 328 326 325 326 328
338 340 344 345 345 346 339 337 332 330 322 315 315 309 308 308 307 307 307 308 308 308 308 308 307 307 307 306 306 306 306 306 306 306 308 317 320 322 324 327 326 324 324
336 339 341 341 343 342 332 325 317 327 323 314 312 308 308 308 307 307 307 308 308 308 308 308 307 307 307 306 306 305 305 305 305 306 308 317 320 322 322 323 323 323 322
337 337 340 339 340 336 328 318 314 316 317 311 310 308 307 308 307 308 307 307 307 308 307 307 307 306 306 306 305 305 304 305 305 305 306 309 318 323 324 328 326 323 321
337 339 338 337 337 331 321 314 310 309 308 308 309 307 307 308 308 308 307 307 307 307 306 306 306 306 306 306 305 305 304 304 305 304 305 306 307 310 317 320 324 327 327
337 338 339 337 332 327 319 310 308 307 308 308 307 307 307 307 308 308 308 308 307 308 308 307 307 306 305 305 305 305 304 304 304 304 304 305 306 305 307 314 316 319 322
337 338 336 333 328 322 313 310 306 306 307 307 307 307 307 308 307 308 308 308 308 308 308 308 306 306 306 305 305 305 305 304 303 302 303 304 305 305 305 307 309 310 314
338 338 334 329 322 313 310 305 305 305 306 306 307 308 307 308 307 308 308 308 307 307 307 307 306 306 305 304 303 303 304 303 304 304 302 303 304 304 304 305 305 304 309
334 331 327 321 314 309 304 304 304 305 305 305 307 307 308 308 308 308 308 307 307 307 307 306 306 304 304 303 303 304 304 303 303 302 303 304 303 304 303 303 303 303 303
329 326 321 320 311 309 306 305 306 305 305 307 307 306 307 308 308 307 308 307 306 306 305 305 305 304 304 303 302 300 299 302 302 302 303 302 301 303 302 302 302 302 303
323 319 318 313 310 308 305 304 304 305 305 305 305 306 306 306 307 307 307 307 306 306 305 304 303 303 303 302 300 301 297 296 297 301 301 301 301 301 301 301 301 301 301
318 315 313 311 307 305 305 306 306 306 305 307 307 307 307 306 306 306 305 305 305 304 304 303 303 303 302 301 300 300 300 299 295 294 299 299 300 299 300 300 300 300 301
309 310 311 307 304 305 305 307 307 305 305 306 306 305 306 306 305 304 304 304 303 303 303 302 302 301 302 301 300 299 298 298 297 294 292 295 297 298 299 299 299 300 300
306 306 305 304 303 304 304 304 305 305 305 305 306 306 306 305 304 303 303 303 303 302 302 302 301 300 300 299 299 298 297 296 295 294 292 293 293 295 297 298 298 299 300

GFSSE_sfc_thetae_090.txt.gz
Theta_e
346 351 352 350 356 356 356 354 352 352 352 354 355 355 355 355 355 355 355 354 354 354 353 354 354 354 354 353 352 351 349 347 346 347 348 351 355 356 355 356 357 353 355
348 350 353 349 354 353 352 350 350 348 349 351 351 351 352 352 353 354 354 354 353 352 352 352 351 351 350 353 352 350 349 348 347 345 350 349 351 354 355 354 356 354 354
348 348 351 349 351 351 350 349 348 344 345 347 348 347 348 349 348 348 349 350 348 347 347 347 347 347 348 352 352 350 349 349 345 347 349 339 344 350 352 353 354 355 354
348 346 349 349 349 349 348 346 344 342 341 342 343 344 346 346 345 344 343 342 341 342 345 346 346 347 349 353 351 350 349 349 347 350 343 340 338 347 348 350 353 354 354
347 347 347 349 349 347 346 343 342 341 342 342 342 342 343 343 343 343 344 344 344 345 345 345 345 346 348 352 351 350 349 348 350 345 342 345 345 346 346 348 349 352 353
345 347 348 349 347 347 346 344 343 343 344 345 346 345 345 346 347 346 346 346 344 346 345 341 340 343 347 351 351 350 348 346 349 343 343 343 345 350 349 346 347 348 351
343 345 346 347 346 346 346 345 344 344 346 346 346 348 348 348 349 347 345 342 344 343 340 338 338 343 346 347 349 348 345 344 340 340 342 343 342 343 346 349 346 346 348
343 343 344 347 346 346 346 347 347 346 347 349 349 349 349 348 343 342 340 339 339 339 337 336 335 338 343 344 346 344 342 344 340 340 342 340 343 341 343 343 348 345 345
344 343 342 344 347 348 348 348 349 349 349 350 349 348 343 341 339 338 337 336 335 335 334 333 332 332 333 334 334 335 337 339 337 337 334 334 340 335 336 340 343 348 347
341 341 341 342 344 346 349 350 349 350 349 349 346 343 340 338 337 336 334 333 332 330 328 327 328 328 327 326 325 323 324 329 327 330 330 329 334 334 333 333 338 342 347
339 342 342 341 343 347 350 349 349 348 348 343 338 335 334 335 333 333 331 330 329 327 325 324 322 319 319 320 320 318 323 317 319 321 325 328 330 333 331 329 331 335 340
337 340 341 342 344 347 347 348 348 347 342 337 332 328 329 329 329 328 329 327 326 324 321 319 317 316 319 312 312 319 313 314 314 314 319 323 326 328 331 327 328 329 332
337 340 341 342 345 347 346 347 346 342 333 327 325 324 325 325 324 321 318 316 315 314 313 313 313 312 312 312 311 311 311 311 311 312 316 321 323 325 326 330 327 327 328
337 339 343 344 346 347 347 345 344 338 329 322 320 317 317 315 313 313 313 314 314 314 313 313 313 313 312 311 311 311 311 310 310 311 316 322 323 323 324 325 328 325 325
337 339 343 346 347 346 346 344 342 336 328 323 318 315 315 314 312 313 313 313 313 314 313 313 312 312 312 311 311 310 310 310 310 311 312 321 325 326 329 329 324 325 323
338 338 343 345 347 346 342 340 338 336 330 323 318 315 313 314 313 313 312 313 313 313 313 312 312 312 311 311 311 310 310 310 310 310 311 312 315 320 323 327 330 330 327
339 339 342 344 345 344 339 333 323 331 328 322 318 314 313 314 313 313 312 312 312 313 312 313 312 313 312 312 311 311 310 309 309 309 310 311 311 312 317 319 322 325 326
340 337 340 342 344 343 333 324 318 321 324 319 316 314 313 313 313 313 313 313 313 314 314 314 314 313 313 312 311 311 310 310 309 308 309 310 310 310 310 312 313 316 319
341 341 341 341 341 337 323 314 315 314 316 314 314 313 313 312 313 313 313 314 314 313 314 314 314 313 312 312 310 311 311 310 309 308 308 309 309 310 309 307 308 308 312
339 340 342 341 338 327 317 313 311 312 313 313 313 313 312 313 313 313 314 313 313 313 313 313 312 313 311 310 308 309 310 310 310 309 309 308 309 310 309 309 309 307 305
338 339 341 338 335 326 322 313 311 311 311 312 313 312 312 313 313 314 314 313 313 313 313 312 312 310 311 311 309 309 310 309 308 307 309 309 308 308 307 307 307 307 306
336 339 340 336 332 325 321 316 316 314 313 313 313 313 314 314 313 313 313 313 313 312 312 311 311 310 309 309 306 306 304 306 307 306 307 307 306 307 306 306 306 305 306
336 338 338 334 327 325 320 315 313 313 312 311 312 312 313 313 313 313 313 313 312 312 311 312 311 310 307 309 307 305 302 301 304 307 306 306 305 305 306 305 305 305 305
335 337 335 333 327 322 319 314 313 311 309 310 311 312 313 312 312 312 312 312 312 312 311 311 310 309 308 306 307 305 305 304 299 298 304 304 305 303 304 304 304 304 304
331 331 331 327 324 320 315 314 313 312 313 313 312 312 312 312 312 312 311 311 310 310 310 309 308 307 307 306 306 305 304 303 303 299 296 299 302 303 303 303 303 303 303
324 325 325 326 320 314 312 314 314 313 311 310 311 311 311 312 312 310 310 311 311 310 309 309 308 307 307 305 305 304 302 301 300 299 297 297 297 299 301 302 302 302 303

GFSSE_sfc_thetae_093.txt.gz
Theta_e
349 346 351 357 357 358 356 355 354 354 355 356 356 356 356 356 355 355 355 355 355 354 354 354 353 353 354 352 351 349 348 347 346 348 352 353 355 356 356 355 356 351 355
349 346 351 356 357 356 354 352 351 351 352 353 353 353 354 354 355 354 354 353 351 351 350 350 350 351 353 351 351 350 347 347 348 352 352 350 351 354 355 354 356 353 355
345 348 347 353 354 354 351 350 347 346 349 350 348 349 350 349 349 350 349 348 346 348 348 348 348 350 353 351 350 350 349 348 352 353 349 338 342 351 352 354 355 354 354
344 346 347 350 352 351 350 348 344 343 344 345 345 346 347 347 345 344 343 343 344 346 347 347 348 350 353 351 351 350 348 348 353 349 343 340 336 347 350 351 354 354 353
342 345 348 351 350 349 346 344 342 342 342 343 343 344 344 344 344 345 345 345 345 346 344 343 346 350 352 351 350 349 347 348 352 342 341 346 348 347 347 348 350 353 353
342 347 349 350 349 347 344 343 343 344 344 344 343 344 345 346 347 347 345 346 348 343 341 342 346 349 351 350 349 348 347 347 346 341 342 341 342 347 350 348 347 349 352
341 345 347 349 348 347 345 344 344 346 346 346 347 347 348 349 349 345 344 345 343 340 339 341 347 348 349 349 347 345 345 347 340 342 340 338 339 344 345 350 346 347 348
341 341 344 347 347 347 347 346 345 347 347 348 348 348 348 346 344 342 341 342 340 339 337 337 340 342 344 344 344 343 341 344 338 336 337 335 341 338 341 344 349 348 346
341 340 339 340 346 348 348 348 347 348 349 350 349 346 344 342 341 340 338 337 337 336 335 334 333 335 335 334 333 333 333 339 334 332 330 331 340 336 335 337 343 347 349
339 338 338 339 341 343 347 350 350 349 349 349 346 342 343 341 338 337 336 334 332 330 329 329 329 328 327 326 324 322 327 334 325 329 327 327 334 335 333 333 335 341 344
336 338 339 338 342 345 346 349 349 350 348 343 340 342 339 335 334 332 331 331 329 327 325 323 320 319 323 322 319 320 328 317 317 320 319 326 328 332 332 330 331 333 338
334 338 338 339 340 344 344 346 348 347 344 338 334 332 331 331 331 329 329 327 325 323 321 319 317 318 324 312 313 321 312 313 313 314 318 324 326 328 330 331 329 330 331
336 338 338 339 341 342 341 344 344 343 336 331 327 326 327 327 326 324 321 317 316 320 314 316 315 313 313 313 313 312 312 311 311 314 320 325 325 325 326 327 330 327 329
335 337 338 339 341 342 342 344 342 336 330 325 324 321 320 317 315 314 314 315 316 315 314 314 313 314 313 312 312 311 311 311 311 312 320 327 328 330 332 327 325 326 327
334 337 339 341 342 341 343 342 341 336 328 324 320 317 316 315 313 314 314 314 314 315 314 314 313 313 312 312 312 311 311 310 311 311 315 319 323 324 328 332 331 326 327
335 337 340 341 342 342 341 342 340 336 329 324 320 317 315 314 314 314 314 314 314 314 314 313 313 313 312 312 312 311 311 311 311 311 312 314 318 320 324 327 329 330 331
336 338 340 343 344 343 342 335 335 336 328 324 320 316 314 315 313 313 313 313 313 313 312 313 312 313 313 313 312 312 311 311 311 310 311 313 313 315 315 317 320 322 324
336 337 341 345 344 343 341 330 323 321 325 324 318 316 313 314 314 314 314 313 313 314 314 313 313 313 313 313 312 312 312 311 311 309 311 311 312 311 313 311 312 314 317
338 338 340 344 343 336 326 322 317 319 321 320 317 315 314 314 314 314 314 314 314 315 313 313 312 312 312 312 311 311 312 311 311 308 308 310 311 312 311 309 307 307 310
339 340 340 342 343 331 320 316 317 315 318 317 315 314 313 314 313 315 315 315 314 314 313 313 312 313 312 311 310 310 312 312 311 310 309 307 310 311 312 312 312 309 307
340 336 341 340 335 327 322 316 314 313 314 314 315 313 313 314 313 314 314 314 314 314 313 314 312 311 311 312 309 310 311 312 310 309 309 308 311 309 309 311 310 310 308
332 331 340 340 335 332 326 321 318 315 315 315 318 314 314 314 313 313 314 314 313 314 314 313 313 311 312 311 307 307 304 307 309 307 308 307 308 309 307 307 307 307 309
330 335 339 337 334 332 329 322 320 319 316 315 314 313 313 314 314 313 313 313 313 314 313 314 314 313 309 311 310 305 302 301 305 308 308 308 308 307 307 306 306 306 306
333 338 339 338 334 332 328 322 318 313 312 313 313 313 313 313 313 313 313 313 313 313 313 313 312 312 312 307 310 308 307 305 300 299 305 305 306 304 305 306 305 304 304
335 336 338 337 333 331 325 321 318 316 314 313 312 312 312 313 313 313 313 313 312 313 312 311 311 310 309 308 308 308 307 306 304 301 298 301 303 304 305 304 304 304 304
334 337 336 334 332 327 324 320 318 316 313 312 312 312 312 313 313 312 312 312 312 312 311 311 311 310 309 308 307 306 305 302 300 300 298 298 298 300 302 303 303 303 304

GFSSE_sfc_thetae_096.txt.gz
Theta_e
341 346 358 358 359 358 357 356 356 356 356 357 356 355 355 356 355 355 355 355 353 353 352 352 353 354 352 351 349 348 349 349 349 352 352 353 355 356 356 355 357 351 356
340 344 359 358 359 356 354 354 354 354 353 353 354 354 354 354 354 353 352 351 351 349 350 350 352 354 352 350 350 349 349 353 355 354 350 349 351 355 354 354 355 353 356
339 343 353 358 356 354 353 350 349 352 351 350 351 352 351 351 351 348 347 346 348 349 349 350 351 353 351 350 349 350 350 353 353 352 350 336 340 351 353 353 354 355 356
344 341 348 356 355 353 352 347 346 346 347 348 348 349 348 346 345 345 344 345 346 347 346 348 351 352 351 351 349 349 350 352 350 347 340 340 341 347 349 352 353 354 355
341 342 346 355 352 351 348 344 343 343 344 344 346 345 345 346 346 346 346 347 345 343 344 348 351 352 351 350 349 349 348 353 349 340 336 337 339 346 347 348 350 351 352
341 343 351 352 350 347 344 344 344 345 344 344 344 345 346 346 347 346 348 345 343 343 346 348 350 351 350 348 347 347 348 350 345 331 330 334 335 346 350 347 348 350 351
343 344 347 350 348 345 345 345 346 347 347 347 347 349 350 349 347 346 346 343 341 341 345 347 347 348 348 346 346 344 342 349 334 330 329 331 333 342 345 349 349 347 348
341 342 344 349 348 346 346 346 347 348 348 349 348 348 348 346 344 344 343 342 340 339 339 341 342 342 341 340 339 337 341 343 329 327 326 328 340 338 339 344 346 349 347
338 339 339 341 346 349 348 347 349 350 350 350 349 346 345 343 342 341 340 339 338 336 335 335 335 335 334 332 330 330 334 339 323 322 323 324 340 335 335 336 341 343 348
335 334 334 337 340 341 344 351 351 350 350 348 345 345 343 340 339 337 335 334 332 331 330 329 327 326 325 324 324 326 333 329 317 316 318 322 332 335 333 333 335 340 343
333 331 333 334 337 341 343 348 349 351 349 345 343 344 341 330 327 327 331 331 329 327 324 322 321 324 325 328 325 329 324 308 312 313 316 325 329 331 334 332 332 333 339
329 331 333 334 338 340 344 344 343 343 339 333 332 332 329 326 325 326 326 326 324 323 321 319 316 323 320 306 307 317 305 305 310 312 317 327 326 328 329 332 329 332 332
329 332 333 335 340 338 342 342 342 342 336 326 325 323 323 323 322 318 316 312 312 319 309 311 308 308 306 306 306 304 305 305 309 316 324 329 332 333 329 327 328 329 331
330 331 333 335 336 338 341 340 340 331 323 319 318 316 316 314 310 311 309 308 308 308 307 307 306 306 305 305 303 303 303 304 306 311 314 324 326 330 334 331 327 329 330
330 331 331 333 334 338 340 336 335 323 319 316 312 311 310 308 306 307 307 308 307 307 306 306 305 305 304 305 304 303 303 303 303 309 309 320 323 327 329 333 334 334 333
331 331 333 333 336 339 339 338 333 326 319 316 313 309 309 308 307 307 307 308 307 307 306 306 305 305 304 305 305 304 303 303 303 305 308 310 319 320 322 325 326 327 327
331 332 334 334 338 338 333 332 332 326 321 315 313 309 308 309 307 307 307 307 306 306 306 307 306 306 306 308 304 304 304 303 303 303 305 308 310 316 316 317 319 321 322
331 332 336 338 338 336 330 326 323 324 320 317 314 311 310 310 310 309 308 307 307 307 307 306 306 306 306 306 304 304 304 304 303 302 304 305 304 307 311 312 312 313 315
332 333 339 339 334 329 325 325 323 322 319 315 312 309 310 310 310 309 309 309 308 308 307 306 305 305 305 305 305 303 304 304 303 305 302 304 303 304 304 309 310 308 309
333 334 341 340 330 327 322 318 317 319 316 314 310 309 308 309 309 309 309 308 308 307 306 305 304 304 304 304 307 306 304 304 303 303 301 303 303 304 303 303 303 304 310
333 335 339 336 327 322 318 318 317 312 311 309 310 309 307 308 309 308 308 308 308 307 306 306 304 303 304 304 302 302 303 304 302 302 301 300 302 303 302 302 302 302 301
334 335 337 332 325 322 320 320 318 311 310 310 310 309 308 308 308 308 308 307 307 306 305 305 305 304 304 304 300 298 296 299 301 300 300 301 300 301 301 301 300 298 299
330 327 336 332 327 324 322 321 317 312 311 309 308 307 307 308 308 307 307 307 306 306 306 306 306 305 302 304 302 299 294 293 295 299 299 299 298 298 299 299 298 298 298
329 329 338 334 331 328 326 319 314 310 307 307 308 308 307 307 307 308 307 306 305 306 305 305 308 304 303 300 302 305 300 298 293 292 297 298 299 299 297 297 297 297 297
328 333 336 333 331 330 326 320 313 309 309 309 310 307 306 306 306 307 307 306 305 305 305 304 303 302 302 300 300 299 298 298 297 293 291 293 296 296 296 296 295 296 296
332 334 335 332 330 328 325 317 313 313 307 308 305 307 305 306 306 306 307 305 305 305 305 304 303 302 301 300 299 298 297 295 294 293 291 290 291 292 294 294 294 295 296

GFSSE_sfc_thetae_099.txt.gz
Theta_e
340 351 361 360 359 358 358 358 358 357 357 357 356 356 355 355 354 354 353 353 351 351 352 354 352 350 349 350 351 351 357 353 349 348 350 353 354 355 356 355 356 351 355
344 353 361 359 358 357 357 356 357 356 356 356 355 355 355 354 352 351 351 350 350 350 351 352 352 351 349 350 351 352 353 352 350 348 347 348 351 354 355 354 355 352 356
346 353 355 360 357 355 354 355 354 352 353 353 353 353 352 351 349 347 347 348 348 349 350 352 352 351 349 349 350 351 351 349 348 347 346 338 341 352 353 354 354 354 355
347 352 353 358 356 352 350 350 351 351 350 350 350 348 346 346 345 345 345 346 345 347 350 353 352 351 350 349 350 351 350 346 344 343 336 338 340 347 351 352 353 354 354
342 349 352 357 354 351 347 346 346 346 346 347 346 345 346 346 346 346 346 344 345 347 350 353 352 351 349 348 349 348 347 342 339 334 331 334 339 347 348 349 351 352 352
338 346 354 354 352 348 345 344 344 344 345 345 345 346 346 347 347 349 346 345 347 348 349 351 350 349 348 347 345 347 344 339 335 328 329 333 334 348 351 348 349 351 352
340 346 348 351 348 345 345 346 346 345 345 346 348 350 350 348 348 347 344 343 344 346 346 347 345 346 344 342 340 345 341 336 326 325 325 328 333 341 347 349 348 347 351
342 344 345 348 347 346 346 348 349 349 350 350 350 350 348 346 346 344 343 341 340 342 342 343 342 340 339 336 335 339 336 331 323 320 321 324 338 337 340 344 347 347 349
342 341 341 341 344 349 349 349 350 351 350 350 349 347 345 344 343 342 341 339 338 337 336 335 335 334 332 330 331 336 333 327 315 317 321 321 339 336 336 339 343 347 347
338 338 335 338 340 340 344 352 352 352 351 348 347 345 343 341 340 338 336 334 333 332 330 329 327 325 327 328 330 331 327 322 312 315 316 324 335 335 334 334 338 342 344
333 334 336 336 338 340 343 349 351 351 347 346 345 345 336 325 326 326 331 331 328 325 324 325 326 324 325 329 330 324 319 310 313 315 316 332 331 332 333 333 334 335 339
328 330 334 335 337 341 346 343 342 343 336 333 333 330 325 321 321 324 326 326 325 323 324 325 321 322 312 303 305 312 306 310 315 318 323 334 333 330 330 330 332 333 334
327 330 332 334 338 341 342 342 341 337 333 329 329 324 323 323 319 315 312 311 311 317 307 307 306 304 302 303 302 302 305 309 310 313 321 329 333 335 329 330 331 332 333
327 329 331 334 339 341 341 340 340 337 328 319 319 321 318 316 312 311 309 306 305 306 303 303 303 302 302 302 300 300 301 305 306 309 316 327 330 333 335 335 334 334 333
327 329 331 337 338 340 339 336 335 320 316 311 310 312 310 309 306 307 304 304 303 303 304 303 302 302 302 302 301 300 300 301 305 307 309 322 324 327 328 330 329 328 328
327 328 332 336 337 339 336 330 322 316 312 310 307 306 306 305 304 304 304 303 304 303 303 302 303 303 302 302 302 302 301 300 304 306 307 310 319 320 322 323 324 325 327
329 328 331 335 338 337 334 326 322 316 312 309 308 305 306 306 305 305 304 304 302 302 304 303 303 303 304 305 301 301 302 300 301 304 306 306 309 317 316 315 317 318 319
330 330 331 337 335 333 329 328 320 316 313 312 311 309 308 309 307 307 305 304 304 304 304 303 303 303 303 302 301 301 301 301 299 301 303 303 304 306 310 313 314 313 314
331 331 334 333 330 325 325 324 322 321 315 312 307 306 307 308 309 306 307 306 307 305 305 304 302 302 302 302 303 302 301 301 301 303 300 301 301 302 303 310 311 310 310
331 334 335 333 326 325 322 321 322 322 321 316 307 306 307 307 307 306 307 305 306 303 303 302 302 302 302 302 306 303 302 301 300 299 299 303 301 302 301 301 301 302 311
333 336 334 331 325 321 319 317 317 320 318 310 308 307 307 306 306 306 306 304 304 303 303 303 302 300 301 301 300 300 300 300 299 299 298 298 299 301 300 300 300 300 300
330 336 332 329 324 322 322 321 322 320 311 309 309 307 307 305 306 306 306 304 304 304 303 303 302 301 302 301 298 296 294 297 298 298 297 298 296 298 299 299 297 297 297
331 336 331 327 324 323 323 322 320 315 308 307 306 305 306 306 306 306 305 305 304 303 303 303 303 302 300 301 300 298 293 291 293 296 297 297 296 296 296 297 297 297 296
330 333 330 326 324 324 322 320 316 312 307 307 306 306 305 306 305 305 305 304 303 303 303 303 305 302 301 299 300 302 297 296 293 291 295 296 297 297 295 294 294 296 295
331 334 331 328 326 324 321 320 316 311 310 313 309 305 304 306 305 305 304 303 303 303 303 303 301 300 300 299 298 297 296 295 294 292 290 292 294 294 294 293 292 293 294
328 334 332 330 328 327 323 318 314 311 309 310 305 304 305 303 305 305 304 303 303 303 302 302 301 300 299 298 297 296 295 293 292 291 288 288 289 291 292 292 292 292 293

GFSSE_sfc_thetae_105.txt.gz
Theta_e
338 346 358 356 358 359 358 358 358 357 357 357 356 355 355 354 352 351 350 350 352 349 347 349 351 352 352 351 351 350 347 348 349 350 352 353 354 355 355 354 354 350 355
343 350 357 359 357 358 358 357 357 357 356 355 355 354 353 350 350 350 348 348 350 350 347 349 351 351 351 352 350 349 347 348 347 347 347 350 353 355 355 353 356 351 355
348 349 356 359 357 357 357 356 356 356 355 354 354 353 350 349 348 348 346 347 350 350 349 350 350 350 350 348 348 347 347 347 346 346 346 338 345 354 354 354 356 354 354
349 352 352 358 359 357 357 355 355 355 354 353 351 348 347 346 346 344 346 347 350 350 349 350 349 348 349 346 343 344 344 344 342 340 335 340 339 352 353 354 354 354 354
350 352 351 358 357 357 355 354 353 353 350 347 347 345 345 345 344 345 346 349 351 350 349 348 345 349 346 344 342 341 341 340 338 331 329 337 339 344 352 353 352 352 352
347 349 355 356 354 354 353 351 349 349 348 345 345 346 345 345 346 346 346 350 350 349 348 346 345 349 345 343 341 340 339 337 331 323 326 333 339 347 349 350 351 352 352
345 350 350 352 349 349 349 348 347 346 345 345 346 346 348 346 346 349 348 345 348 348 346 344 342 345 343 340 339 337 336 334 320 321 324 328 340 350 347 348 348 351 350
346 348 348 351 349 347 346 345 345 345 346 346 349 350 348 346 345 346 345 345 345 344 343 341 338 341 340 336 333 332 333 329 320 319 323 327 342 346 349 348 348 347 348
344 343 342 341 343 348 346 345 345 346 348 350 349 348 347 345 344 343 343 342 341 340 339 336 334 338 336 332 330 328 330 328 314 317 324 325 340 341 344 344 345 347 346
339 338 334 335 338 339 341 350 349 350 350 349 347 346 344 343 342 341 339 336 333 330 330 329 332 334 332 329 328 329 330 328 317 318 321 329 336 337 338 339 341 342 345
336 332 333 334 336 338 341 347 350 350 350 348 346 344 336 326 327 326 333 333 331 328 327 328 330 330 328 328 330 330 325 315 317 321 322 336 335 336 337 337 336 338 340
331 332 333 333 335 338 346 342 341 345 339 335 331 324 322 321 321 323 328 332 327 326 327 326 326 326 315 306 312 317 311 313 315 318 327 336 335 336 336 335 336 336 337
332 334 334 334 336 340 341 338 335 333 332 328 322 320 318 320 316 311 309 307 306 312 303 306 302 301 301 303 303 305 308 309 312 317 331 338 337 335 333 332 333 333 332
331 333 334 336 338 340 341 338 332 330 327 324 321 319 317 312 309 307 306 304 303 300 299 298 298 298 299 301 301 302 303 306 308 312 324 333 331 331 331 332 332 330 330
329 332 334 335 338 340 339 336 331 328 327 324 319 319 313 308 306 304 302 302 300 300 299 298 298 298 297 298 299 301 301 303 305 308 312 328 327 327 327 328 327 326 326
328 330 334 335 338 339 339 336 332 328 325 322 318 317 310 306 305 303 301 300 300 300 299 299 299 298 297 297 298 299 300 301 303 306 307 312 321 321 321 322 322 323 323
327 330 331 333 338 338 337 336 331 327 320 320 317 315 311 306 305 301 301 300 300 299 300 300 300 299 299 299 296 297 299 300 301 302 304 306 308 318 318 319 319 320 321
328 328 330 334 338 337 335 334 326 317 314 316 313 312 310 306 303 301 301 300 300 300 301 301 301 300 299 299 297 297 297 298 299 300 302 302 303 304 310 316 316 317 317
328 328 329 333 336 336 334 328 318 310 310 310 309 307 306 305 304 302 301 301 302 301 301 302 300 300 299 299 300 299 299 297 297 301 299 300 300 301 301 311 315 314 313
328 329 331 334 336 336 327 319 315 312 311 306 306 307 305 305 304 302 301 301 302 301 300 300 299 299 299 299 303 300 298 298 298 297 297 299 298 299 299 299 298 300 314
328 329 331 333 335 329 321 317 314 312 313 311 307 307 305 305 304 303 301 301 302 301 299 300 299 299 299 298 298 298 298 297 295 296 295 296 298 298 298 298 297 297 298
327 330 332 333 331 327 323 320 317 316 319 316 309 305 307 306 305 303 303 301 301 301 300 300 301 299 299 298 296 294 293 296 296 295 294 295 294 295 295 296 294 294 294
327 329 331 332 329 323 321 321 318 318 317 316 311 305 305 306 306 306 304 303 302 303 301 300 300 300 298 299 297 296 292 291 291 295 294 294 294 294 293 293 292 293 292
327 330 330 329 324 322 322 320 317 316 313 317 315 309 307 305 305 305 304 303 302 302 301 301 302 300 300 298 298 300 296 295 292 292 294 293 293 294 291 292 291 292 292
331 330 326 326 326 324 323 322 320 319 315 313 312 310 306 304 304 304 303 303 301 301 300 301 300 300 299 298 297 296 294 293 291 291 290 292 292 292 292 291 290 290 291
331 329 326 325 325 326 325 324 323 317 314 311 311 310 311 307 303 303 303 301 303 301 300 300 299 299 297 296 296 295 294 293 291 289 288 288 288 290 290 290 289 290 291